Time,TemperatureF,DewpointF,PressureIn,WindDirection,WindDirectionDegrees,WindSpeedMPH,WindSpeedGustMPH,Humidity,HourlyPrecipIn,Conditions,Clouds,dailyrainin,SoftwareType,DateUTC
2013-08-28 00:01:00,62.6,52.7,25.25,WSW,248,3.6,3.6,70,0.00,,---,0.00,VWS V14.01,2013-08-28 06:01:00,
2013-08-28 00:02:00,62.6,52.7,25.25,WSW,248,3.6,3.6,70,0.00,,---,0.00,VWS V14.01,2013-08-28 06:02:00,
2013-08-28 00:04:00,62.6,52.7,25.25,South,183,4.9,4.9,70,0.00,,---,0.00,VWS V14.01,2013-08-28 06:04:00,
2013-08-28 00:05:00,62.8,50.4,25.25,South,181,3.1,4.9,64,0.00,,---,0.00,VWS V14.01,2013-08-28 06:05:00,
2013-08-28 00:06:00,63.1,50.8,25.25,South,181,3.1,3.1,64,0.00,,---,0.00,VWS V14.01,2013-08-28 06:06:00,
2013-08-28 00:07:00,63.1,50.8,25.25,South,174,2.7,3.1,64,0.00,,---,0.00,VWS V14.01,2013-08-28 06:07:00,
2013-08-28 00:08:00,63.5,51.1,25.25,South,174,2.7,2.7,64,0.00,,---,0.00,VWS V14.01,2013-08-28 06:08:00,
2013-08-28 00:10:00,63.5,51.1,25.25,East,95,0.0,0.0,64,0.00,,---,0.00,VWS V14.01,2013-08-28 06:10:00,
2013-08-28 00:13:00,63.9,51.0,25.25,SE,124,3.6,3.6,63,0.00,,---,0.00,VWS V14.01,2013-08-28 06:13:00,
2013-08-28 00:14:00,63.9,51.0,25.25,SE,124,3.6,3.6,63,0.00,,---,0.00,VWS V14.01,2013-08-28 06:14:00,
2013-08-28 00:16:00,63.9,50.6,25.25,SE,124,4.0,4.0,62,0.00,,---,0.00,VWS V14.01,2013-08-28 06:16:00,
2013-08-28 00:18:00,63.9,50.6,25.25,SE,124,4.0,4.0,62,0.00,,---,0.00,VWS V14.01,2013-08-28 06:18:00,
2013-08-28 00:20:00,63.9,50.6,25.25,South,185,2.7,4.0,62,0.00,,---,0.00,VWS V14.01,2013-08-28 06:20:00,
2013-08-28 00:25:00,63.7,50.4,25.25,SSW,198,2.2,2.2,62,0.00,,---,0.00,VWS V14.01,2013-08-28 06:25:00,
2013-08-28 00:26:00,63.7,50.4,25.25,SSW,198,2.2,2.2,62,0.00,,---,0.00,VWS V14.01,2013-08-28 06:26:00,
2013-08-28 00:27:00,63.7,50.4,25.25,SE,131,3.6,3.6,62,0.00,,---,0.00,VWS V14.01,2013-08-28 06:27:00,
2013-08-28 00:28:00,63.7,50.4,25.25,SE,131,3.6,3.6,62,0.00,,---,0.00,VWS V14.01,2013-08-28 06:28:00,
2013-08-28 00:33:00,64.9,46.9,25.22,South,183,2.2,2.2,52,0.00,,---,0.00,VWS V14.01,2013-08-28 06:33:00,
2013-08-28 00:34:00,65.3,47.2,25.22,SW,227,3.1,3.1,52,0.00,,---,0.00,VWS V14.01,2013-08-28 06:34:00,
2013-08-28 00:35:00,65.3,47.2,25.22,SSE,151,2.2,3.1,52,0.00,,---,0.00,VWS V14.01,2013-08-28 06:35:00,
2013-08-28 00:36:00,65.5,48.4,25.22,SSE,151,2.2,2.2,54,0.00,,---,0.00,VWS V14.01,2013-08-28 06:36:00,
2013-08-28 00:39:00,65.3,49.7,25.22,SSE,151,2.7,2.7,57,0.00,,---,0.00,VWS V14.01,2013-08-28 06:39:00,
2013-08-28 00:41:00,64.9,50.7,25.22,NE,38,3.1,3.1,60,0.00,,---,0.00,VWS V14.01,2013-08-28 06:41:00,
2013-08-28 00:42:00,64.9,50.7,25.22,NE,38,3.1,3.1,60,0.00,,---,0.00,VWS V14.01,2013-08-28 06:42:00,
2013-08-28 00:45:00,64.6,50.4,25.22,North,1,0.0,0.0,60,0.00,,---,0.00,VWS V14.01,2013-08-28 06:45:00,
2013-08-28 00:46:00,64.6,50.4,25.22,NNW,340,0.0,0.0,60,0.00,,---,0.00,VWS V14.01,2013-08-28 06:46:00,
2013-08-28 00:49:00,63.9,51.0,25.22,WSW,254,0.0,0.0,63,0.00,,---,0.00,VWS V14.01,2013-08-28 06:49:00,
2013-08-28 00:51:00,63.5,51.5,25.22,WSW,254,0.0,0.0,65,0.00,,---,0.00,VWS V14.01,2013-08-28 06:51:00,
2013-08-28 00:54:00,63.0,51.8,25.22,SW,226,3.1,3.1,67,0.00,,---,0.00,VWS V14.01,2013-08-28 06:54:00,
2013-08-28 00:59:00,63.0,51.8,25.22,SW,220,0.0,0.0,67,0.00,,---,0.00,VWS V14.01,2013-08-28 06:59:00,
2013-08-28 01:00:00,63.0,51.8,25.22,SW,220,0.0,0.0,67,0.00,,---,0.00,VWS V14.01,2013-08-28 07:00:00,
2013-08-28 01:01:00,63.0,51.8,25.22,SW,220,0.0,0.0,67,0.00,,---,0.00,VWS V14.01,2013-08-28 07:01:00,
2013-08-28 01:03:00,63.0,51.8,25.22,SW,220,0.0,0.0,67,0.00,,---,0.00,VWS V14.01,2013-08-28 07:03:00,
2013-08-28 01:04:00,62.2,52.7,25.22,SW,220,0.0,0.0,71,0.00,,---,0.00,VWS V14.01,2013-08-28 07:04:00,
2013-08-28 01:05:00,62.2,52.7,25.22,SW,220,0.0,0.0,71,0.00,,---,0.00,VWS V14.01,2013-08-28 07:05:00,
2013-08-28 01:07:00,62.2,52.7,25.22,SW,220,0.0,0.0,71,0.00,,---,0.00,VWS V14.01,2013-08-28 07:07:00,
2013-08-28 01:08:00,62.2,52.7,25.22,SW,220,0.0,0.0,71,0.00,,---,0.00,VWS V14.01,2013-08-28 07:08:00,
2013-08-28 01:09:00,62.2,52.7,25.22,SW,220,0.0,0.0,71,0.00,,---,0.00,VWS V14.01,2013-08-28 07:09:00,
2013-08-28 01:10:00,62.2,52.7,25.22,SW,220,0.0,0.0,71,0.00,,---,0.00,VWS V14.01,2013-08-28 07:10:00,
2013-08-28 01:14:00,62.2,52.7,25.22,SW,220,0.0,0.0,71,0.00,,---,0.00,VWS V14.01,2013-08-28 07:14:00,
2013-08-28 01:15:00,61.5,52.8,25.22,SW,220,0.0,0.0,73,0.00,,---,0.00,VWS V14.01,2013-08-28 07:15:00,
2013-08-28 01:19:00,61.5,52.8,25.22,South,187,2.7,2.7,73,0.00,,---,0.00,VWS V14.01,2013-08-28 07:19:00,
2013-08-28 01:22:00,61.3,53.7,25.25,South,187,0.0,0.0,76,0.00,,---,0.00,VWS V14.01,2013-08-28 07:22:00,
2013-08-28 01:23:00,61.3,53.7,25.25,SSW,208,3.1,3.1,76,0.00,,---,0.00,VWS V14.01,2013-08-28 07:23:00,
2013-08-28 01:25:00,61.3,53.7,25.25,SSW,208,3.1,3.1,76,0.00,,---,0.00,VWS V14.01,2013-08-28 07:25:00,
2013-08-28 01:26:00,61.3,53.7,25.25,SSW,208,3.1,3.1,76,0.00,,---,0.00,VWS V14.01,2013-08-28 07:26:00,
2013-08-28 01:29:00,61.5,55.0,25.25,WSW,243,0.0,2.2,79,0.00,,---,0.00,VWS V14.01,2013-08-28 07:29:00,
2013-08-28 01:31:00,61.7,55.1,25.25,WSW,243,0.0,0.0,79,0.00,,---,0.00,VWS V14.01,2013-08-28 07:31:00,
2013-08-28 01:32:00,61.7,55.1,25.25,WSW,243,0.0,0.0,79,0.00,,---,0.00,VWS V14.01,2013-08-28 07:32:00,
2013-08-28 01:34:00,61.7,55.1,25.25,SW,220,2.2,2.2,79,0.00,,---,0.00,VWS V14.01,2013-08-28 07:34:00,
2013-08-28 01:35:00,61.7,55.1,25.25,SW,220,2.2,2.2,79,0.00,,---,0.00,VWS V14.01,2013-08-28 07:35:00,
2013-08-28 01:38:00,61.7,55.1,25.25,SW,220,0.0,0.0,79,0.00,,---,0.00,VWS V14.01,2013-08-28 07:38:00,
2013-08-28 01:40:00,61.7,54.8,25.25,SW,220,0.0,0.0,78,0.00,,---,0.00,VWS V14.01,2013-08-28 07:40:00,
2013-08-28 01:43:00,61.7,54.8,25.25,SW,220,0.0,0.0,78,0.00,,---,0.00,VWS V14.01,2013-08-28 07:43:00,
2013-08-28 01:45:00,61.7,54.8,25.25,SW,220,2.2,2.2,78,0.00,,---,0.00,VWS V14.01,2013-08-28 07:45:00,
2013-08-28 01:46:00,61.7,54.8,25.25,SSE,152,2.7,3.1,78,0.00,,---,0.00,VWS V14.01,2013-08-28 07:46:00,
2013-08-28 01:49:00,61.7,54.8,25.25,SE,124,4.0,4.0,78,0.00,,---,0.00,VWS V14.01,2013-08-28 07:49:00,
2013-08-28 01:51:00,61.9,53.9,25.22,SE,124,4.0,4.0,75,0.00,,---,0.00,VWS V14.01,2013-08-28 07:51:00,
2013-08-28 01:53:00,61.9,53.9,25.22,ESE,120,2.7,4.0,75,0.00,,---,0.00,VWS V14.01,2013-08-28 07:53:00,
2013-08-28 01:54:00,61.9,53.9,25.22,SE,125,3.6,3.6,75,0.00,,---,0.00,VWS V14.01,2013-08-28 07:54:00,
2013-08-28 01:55:00,61.9,53.9,25.22,ESE,110,3.1,3.6,75,0.00,,---,0.00,VWS V14.01,2013-08-28 07:55:00,
2013-08-28 01:56:00,61.9,53.9,25.22,ESE,110,3.1,3.1,75,0.00,,---,0.00,VWS V14.01,2013-08-28 07:56:00,
2013-08-28 02:01:00,62.8,52.9,25.22,ESE,110,3.1,3.1,70,0.00,,---,0.00,VWS V14.01,2013-08-28 08:01:00,
2013-08-28 02:02:00,62.8,52.9,25.22,ESE,110,3.1,3.1,70,0.00,,---,0.00,VWS V14.01,2013-08-28 08:02:00,
2013-08-28 02:03:00,62.8,52.9,25.22,ESE,120,2.7,3.1,70,0.00,,---,0.00,VWS V14.01,2013-08-28 08:03:00,
2013-08-28 02:08:00,63.1,52.0,25.22,SSW,209,3.1,3.1,67,0.00,,---,0.00,VWS V14.01,2013-08-28 08:08:00,
2013-08-28 02:09:00,63.1,52.0,25.22,SSW,209,0.0,3.1,67,0.00,,---,0.00,VWS V14.01,2013-08-28 08:09:00,
2013-08-28 02:11:00,63.1,52.0,25.22,SSW,209,0.0,0.0,67,0.00,,---,0.00,VWS V14.01,2013-08-28 08:11:00,
2013-08-28 02:12:00,63.1,52.0,25.22,SSW,209,0.0,0.0,67,0.00,,---,0.00,VWS V14.01,2013-08-28 08:12:00,
2013-08-28 02:13:00,63.1,52.0,25.22,SSW,209,0.0,0.0,67,0.00,,---,0.00,VWS V14.01,2013-08-28 08:13:00,
2013-08-28 02:16:00,62.8,52.1,25.22,SSW,209,0.0,0.0,68,0.00,,---,0.00,VWS V14.01,2013-08-28 08:16:00,
2013-08-28 02:17:00,62.8,52.1,25.22,SW,226,3.1,3.1,68,0.00,,---,0.00,VWS V14.01,2013-08-28 08:17:00,
2013-08-28 02:19:00,62.4,52.1,25.22,SW,226,2.2,3.1,69,0.00,,---,0.00,VWS V14.01,2013-08-28 08:19:00,
2013-08-28 02:20:00,62.4,52.1,25.22,WNW,286,2.7,2.7,69,0.00,,---,0.00,VWS V14.01,2013-08-28 08:20:00,
2013-08-28 02:24:00,62.2,52.3,25.22,WNW,286,2.7,2.7,70,0.00,,---,0.00,VWS V14.01,2013-08-28 08:24:00,
2013-08-28 02:25:00,62.2,52.3,25.22,WNW,286,2.7,2.7,70,0.00,,---,0.00,VWS V14.01,2013-08-28 08:25:00,
2013-08-28 02:26:00,62.2,52.3,25.22,WNW,286,2.7,2.7,70,0.00,,---,0.00,VWS V14.01,2013-08-28 08:26:00,
2013-08-28 02:28:00,62.2,52.3,25.22,WNW,286,2.7,2.7,70,0.00,,---,0.00,VWS V14.01,2013-08-28 08:28:00,
2013-08-28 02:32:00,61.5,52.8,25.22,WNW,286,2.2,2.2,73,0.00,,---,0.00,VWS V14.01,2013-08-28 08:32:00,
2013-08-28 02:33:00,61.3,53.0,25.22,WNW,286,2.2,2.2,74,0.00,,---,0.00,VWS V14.01,2013-08-28 08:33:00,
2013-08-28 02:34:00,61.3,53.0,25.22,WNW,286,0.0,2.2,74,0.00,,---,0.00,VWS V14.01,2013-08-28 08:34:00,
2013-08-28 02:37:00,61.3,53.0,25.22,WNW,286,0.0,0.0,74,0.00,,---,0.00,VWS V14.01,2013-08-28 08:37:00,
2013-08-28 02:39:00,61.2,53.9,25.22,WNW,286,0.0,0.0,77,0.00,,---,0.00,VWS V14.01,2013-08-28 08:39:00,
2013-08-28 02:42:00,61.2,53.9,25.22,WNW,286,0.0,0.0,77,0.00,,---,0.00,VWS V14.01,2013-08-28 08:42:00,
2013-08-28 02:43:00,61.2,53.9,25.22,WNW,286,0.0,0.0,77,0.00,,---,0.00,VWS V14.01,2013-08-28 08:43:00,
2013-08-28 02:45:00,61.2,53.9,25.22,WNW,286,0.0,0.0,77,0.00,,---,0.00,VWS V14.01,2013-08-28 08:45:00,
2013-08-28 02:49:00,60.8,54.3,25.25,WNW,286,3.1,3.1,79,0.00,,---,0.00,VWS V14.01,2013-08-28 08:49:00,
2013-08-28 02:50:00,60.8,54.3,25.25,WNW,286,3.1,3.1,79,0.00,,---,0.00,VWS V14.01,2013-08-28 08:50:00,
2013-08-28 02:52:00,60.8,54.6,25.25,WNW,286,3.1,3.1,80,0.00,,---,0.00,VWS V14.01,2013-08-28 08:52:00,
2013-08-28 02:53:00,60.8,54.6,25.25,WNW,286,3.1,3.1,80,0.00,,---,0.00,VWS V14.01,2013-08-28 08:53:00,
2013-08-28 02:54:00,60.8,54.6,25.25,WNW,286,3.1,3.1,80,0.00,,---,0.00,VWS V14.01,2013-08-28 08:54:00,
2013-08-28 02:55:00,60.8,54.6,25.25,WNW,286,3.1,3.1,80,0.00,,---,0.00,VWS V14.01,2013-08-28 08:55:00,
2013-08-28 02:57:00,60.4,55.3,25.25,West,266,0.0,0.0,83,0.00,,---,0.00,VWS V14.01,2013-08-28 08:57:00,
2013-08-28 02:58:00,60.4,55.3,25.25,West,266,0.0,0.0,83,0.00,,---,0.00,VWS V14.01,2013-08-28 08:58:00,
2013-08-28 03:01:00,60.4,55.6,25.25,SSW,209,4.0,4.0,84,0.00,,---,0.00,VWS V14.01,2013-08-28 09:01:00,
2013-08-28 03:05:00,60.4,55.6,25.25,SSW,206,2.2,2.2,84,0.00,,---,0.00,VWS V14.01,2013-08-28 09:05:00,
2013-08-28 03:07:00,60.3,55.7,25.25,SSW,206,2.2,2.2,85,0.00,,---,0.00,VWS V14.01,2013-08-28 09:07:00,
2013-08-28 03:08:00,60.3,55.7,25.25,SSW,206,2.2,2.2,85,0.00,,---,0.00,VWS V14.01,2013-08-28 09:08:00,
2013-08-28 03:09:00,60.3,55.7,25.25,SSW,206,2.2,2.2,85,0.00,,---,0.00,VWS V14.01,2013-08-28 09:09:00,
2013-08-28 03:10:00,60.3,55.7,25.25,SSW,206,2.2,2.2,85,0.00,,---,0.00,VWS V14.01,2013-08-28 09:10:00,
2013-08-28 03:11:00,60.3,55.7,25.25,SSW,206,2.2,2.2,85,0.00,,---,0.00,VWS V14.01,2013-08-28 09:11:00,
2013-08-28 03:13:00,60.3,55.7,25.25,SSE,165,4.0,4.0,85,0.00,,---,0.00,VWS V14.01,2013-08-28 09:13:00,
2013-08-28 03:16:00,61.3,56.8,25.25,SSE,165,4.0,4.0,85,0.00,,---,0.00,VWS V14.01,2013-08-28 09:16:00,
2013-08-28 03:17:00,61.3,56.8,25.25,SSE,165,4.0,4.0,85,0.00,,---,0.00,VWS V14.01,2013-08-28 09:17:00,
2013-08-28 03:19:00,61.3,56.8,25.25,SSE,165,4.0,4.0,85,0.00,,---,0.00,VWS V14.01,2013-08-28 09:19:00,
2013-08-28 03:20:00,61.3,56.8,25.25,SSE,165,4.0,4.0,85,0.00,,---,0.00,VWS V14.01,2013-08-28 09:20:00,
2013-08-28 03:22:00,61.3,56.8,25.25,SE,141,2.7,4.0,85,0.00,,---,0.00,VWS V14.01,2013-08-28 09:22:00,
2013-08-28 03:24:00,61.3,55.5,25.25,SE,141,2.7,2.7,81,0.00,,---,0.00,VWS V14.01,2013-08-28 09:24:00,
2013-08-28 03:28:00,61.3,55.1,25.25,ESE,108,4.0,4.0,80,0.00,,---,0.00,VWS V14.01,2013-08-28 09:28:00,
2013-08-28 03:29:00,61.3,55.1,25.25,ESE,108,4.0,4.0,80,0.00,,---,0.00,VWS V14.01,2013-08-28 09:29:00,
2013-08-28 03:30:00,61.3,55.1,25.25,ENE,78,4.0,4.0,80,0.00,,---,0.00,VWS V14.01,2013-08-28 09:30:00,
2013-08-28 03:32:00,61.7,55.1,25.25,ENE,78,4.0,4.0,79,0.00,,---,0.00,VWS V14.01,2013-08-28 09:32:00,
2013-08-28 03:34:00,61.7,55.1,25.25,ENE,78,4.0,4.0,79,0.00,,---,0.00,VWS V14.01,2013-08-28 09:34:00,
2013-08-28 03:35:00,61.7,55.1,25.25,ENE,78,4.0,4.0,79,0.00,,---,0.00,VWS V14.01,2013-08-28 09:35:00,
2013-08-28 03:36:00,61.7,55.1,25.25,East,100,3.6,4.0,79,0.00,,---,0.00,VWS V14.01,2013-08-28 09:36:00,
2013-08-28 03:39:00,61.7,55.1,25.25,ESE,113,2.2,2.2,79,0.00,,---,0.00,VWS V14.01,2013-08-28 09:39:00,
2013-08-28 03:40:00,61.9,55.0,25.25,ESE,113,2.2,2.2,78,0.00,,---,0.00,VWS V14.01,2013-08-28 09:40:00,
2013-08-28 03:43:00,61.7,54.8,25.25,ESE,113,2.2,2.2,78,0.00,,---,0.00,VWS V14.01,2013-08-28 09:43:00,
2013-08-28 03:45:00,61.7,54.8,25.25,ESE,113,2.2,2.2,78,0.00,,---,0.00,VWS V14.01,2013-08-28 09:45:00,
2013-08-28 03:46:00,61.7,54.8,25.25,ESE,113,2.2,2.2,78,0.00,,---,0.00,VWS V14.01,2013-08-28 09:46:00,
2013-08-28 03:47:00,61.7,54.8,25.25,ESE,113,2.2,2.2,78,0.00,,---,0.00,VWS V14.01,2013-08-28 09:47:00,
2013-08-28 03:50:00,61.5,54.6,25.25,ESE,113,3.6,3.6,78,0.00,,---,0.00,VWS V14.01,2013-08-28 09:50:00,
2013-08-28 03:53:00,61.5,54.6,25.25,ESE,113,3.6,3.6,78,0.00,,---,0.00,VWS V14.01,2013-08-28 09:53:00,
2013-08-28 03:54:00,61.5,54.6,25.25,South,186,0.0,3.6,78,0.00,,---,0.00,VWS V14.01,2013-08-28 09:54:00,
2013-08-28 03:55:00,61.5,54.6,25.25,South,186,0.0,0.0,78,0.00,,---,0.00,VWS V14.01,2013-08-28 09:55:00,
2013-08-28 03:59:00,61.3,54.8,25.25,South,186,0.0,0.0,79,0.00,,---,0.00,VWS V14.01,2013-08-28 09:59:00,
2013-08-28 04:00:00,61.3,54.8,25.25,South,186,0.0,0.0,79,0.00,,---,0.00,VWS V14.01,2013-08-28 10:00:00,
2013-08-28 04:01:00,61.3,54.8,25.25,South,186,0.0,0.0,79,0.00,,---,0.00,VWS V14.01,2013-08-28 10:01:00,
2013-08-28 04:02:00,61.3,54.8,25.25,SSE,158,2.7,2.7,79,0.00,,---,0.00,VWS V14.01,2013-08-28 10:02:00,
2013-08-28 04:03:00,61.3,54.8,25.25,SSE,158,2.7,2.7,79,0.00,,---,0.00,VWS V14.01,2013-08-28 10:03:00,
2013-08-28 04:08:00,61.7,55.5,25.25,SSE,158,0.0,0.0,80,0.00,,---,0.00,VWS V14.01,2013-08-28 10:08:00,
2013-08-28 04:09:00,61.7,55.5,25.25,SSE,158,0.0,0.0,80,0.00,,---,0.00,VWS V14.01,2013-08-28 10:09:00,
2013-08-28 04:10:00,61.7,55.5,25.25,SSE,158,0.0,0.0,80,0.00,,---,0.00,VWS V14.01,2013-08-28 10:10:00,
2013-08-28 04:11:00,61.7,55.5,25.25,SSE,158,0.0,0.0,80,0.00,,---,0.00,VWS V14.01,2013-08-28 10:11:00,
2013-08-28 04:13:00,61.7,55.5,25.25,SSE,158,0.0,0.0,80,0.00,,---,0.00,VWS V14.01,2013-08-28 10:13:00,
2013-08-28 04:14:00,61.7,55.5,25.25,SSE,158,0.0,0.0,80,0.00,,---,0.00,VWS V14.01,2013-08-28 10:14:00,
2013-08-28 04:17:00,62.1,55.8,25.25,SSE,158,0.0,0.0,80,0.00,,---,0.00,VWS V14.01,2013-08-28 10:17:00,
2013-08-28 04:20:00,62.1,55.8,25.25,SSE,158,0.0,0.0,80,0.00,,---,0.00,VWS V14.01,2013-08-28 10:20:00,
2013-08-28 04:21:00,62.1,55.8,25.25,SSE,158,0.0,0.0,80,0.00,,---,0.00,VWS V14.01,2013-08-28 10:21:00,
2013-08-28 04:22:00,62.1,55.8,25.25,SSE,158,0.0,0.0,80,0.00,,---,0.00,VWS V14.01,2013-08-28 10:22:00,
2013-08-28 04:24:00,62.1,55.8,25.25,SSE,158,0.0,0.0,80,0.00,,---,0.00,VWS V14.01,2013-08-28 10:24:00,
2013-08-28 04:25:00,62.1,55.8,25.25,SSE,158,0.0,0.0,80,0.00,,---,0.00,VWS V14.01,2013-08-28 10:25:00,
2013-08-28 04:26:00,62.1,55.8,25.25,SSE,158,0.0,0.0,80,0.00,,---,0.00,VWS V14.01,2013-08-28 10:26:00,
2013-08-28 04:30:00,62.1,55.8,25.25,SSE,158,0.0,0.0,80,0.00,,---,0.00,VWS V14.01,2013-08-28 10:30:00,
2013-08-28 04:31:00,62.1,55.8,25.25,SSE,158,0.0,0.0,80,0.00,,---,0.00,VWS V14.01,2013-08-28 10:31:00,
2013-08-28 04:32:00,62.1,55.8,25.25,SSE,158,0.0,0.0,80,0.00,,---,0.00,VWS V14.01,2013-08-28 10:32:00,
2013-08-28 04:34:00,62.1,55.8,25.25,SSE,158,0.0,0.0,80,0.00,,---,0.00,VWS V14.01,2013-08-28 10:34:00,
2013-08-28 04:35:00,62.1,55.8,25.25,SSE,158,0.0,0.0,80,0.00,,---,0.00,VWS V14.01,2013-08-28 10:35:00,
2013-08-28 04:38:00,62.1,55.8,25.25,SSE,158,0.0,0.0,80,0.00,,---,0.00,VWS V14.01,2013-08-28 10:38:00,
2013-08-28 04:40:00,62.1,55.8,25.25,SSE,158,0.0,0.0,80,0.00,,---,0.00,VWS V14.01,2013-08-28 10:40:00,
2013-08-28 04:41:00,62.1,55.8,25.25,SSE,158,0.0,0.0,80,0.00,,---,0.00,VWS V14.01,2013-08-28 10:41:00,
2013-08-28 04:42:00,62.1,55.8,25.25,SSE,158,0.0,0.0,80,0.00,,---,0.00,VWS V14.01,2013-08-28 10:42:00,
2013-08-28 04:43:00,62.1,55.8,25.25,SSE,158,0.0,0.0,80,0.00,,---,0.00,VWS V14.01,2013-08-28 10:43:00,
2013-08-28 04:45:00,62.1,55.8,25.25,SSE,158,0.0,0.0,80,0.00,,---,0.00,VWS V14.01,2013-08-28 10:45:00,
2013-08-28 04:47:00,62.1,55.8,25.25,SSE,158,0.0,0.0,80,0.00,,---,0.00,VWS V14.01,2013-08-28 10:47:00,
2013-08-28 04:48:00,62.1,55.8,25.25,SSE,158,0.0,0.0,80,0.00,,---,0.00,VWS V14.01,2013-08-28 10:48:00,
2013-08-28 04:52:00,62.1,55.8,25.25,SSE,158,2.7,2.7,80,0.00,,---,0.00,VWS V14.01,2013-08-28 10:52:00,
2013-08-28 04:53:00,62.1,55.8,25.25,SSE,158,2.7,2.7,80,0.00,,---,0.00,VWS V14.01,2013-08-28 10:53:00,
2013-08-28 04:54:00,62.1,55.8,25.25,SSE,158,2.7,2.7,80,0.00,,---,0.00,VWS V14.01,2013-08-28 10:54:00,
2013-08-28 04:57:00,62.1,55.8,25.25,SSE,158,0.0,0.0,80,0.00,,---,0.00,VWS V14.01,2013-08-28 10:57:00,
2013-08-28 04:59:00,62.1,55.8,25.25,SSE,158,0.0,0.0,80,0.00,,---,0.00,VWS V14.01,2013-08-28 10:59:00,
2013-08-28 05:00:00,62.1,55.8,25.25,SSE,158,0.0,0.0,80,0.00,,---,0.00,VWS V14.01,2013-08-28 11:00:00,
2013-08-28 05:01:00,62.1,55.8,25.25,SSE,158,0.0,0.0,80,0.00,,---,0.00,VWS V14.01,2013-08-28 11:01:00,
2013-08-28 05:02:00,62.1,55.8,25.25,SSE,158,0.0,0.0,80,0.00,,---,0.00,VWS V14.01,2013-08-28 11:02:00,
2013-08-28 05:06:00,62.1,55.8,25.25,SSE,158,0.0,0.0,80,0.00,,---,0.00,VWS V14.01,2013-08-28 11:06:00,
2013-08-28 05:07:00,62.1,55.8,25.25,SSE,158,0.0,0.0,80,0.00,,---,0.00,VWS V14.01,2013-08-28 11:07:00,
2013-08-28 05:09:00,62.1,55.8,25.25,SSE,158,0.0,0.0,80,0.00,,---,0.00,VWS V14.01,2013-08-28 11:09:00,
2013-08-28 05:14:00,62.1,55.8,25.25,SSE,158,0.0,0.0,80,0.00,,---,0.00,VWS V14.01,2013-08-28 11:14:00,
2013-08-28 05:15:00,62.1,55.8,25.25,SSE,158,0.0,0.0,80,0.00,,---,0.00,VWS V14.01,2013-08-28 11:15:00,
2013-08-28 05:16:00,62.1,55.8,25.25,SSE,158,0.0,0.0,80,0.00,,---,0.00,VWS V14.01,2013-08-28 11:16:00,
2013-08-28 05:18:00,62.1,55.8,25.25,SSE,158,2.2,2.2,80,0.00,,---,0.00,VWS V14.01,2013-08-28 11:18:00,
2013-08-28 05:20:00,62.1,55.8,25.25,SSE,158,2.2,2.2,80,0.00,,---,0.00,VWS V14.01,2013-08-28 11:20:00,
2013-08-28 05:21:00,62.1,55.8,25.25,SSE,158,2.2,2.2,80,0.00,,---,0.00,VWS V14.01,2013-08-28 11:21:00,
2013-08-28 05:22:00,62.1,55.8,25.25,SSE,158,2.2,2.2,80,0.00,,---,0.00,VWS V14.01,2013-08-28 11:22:00,
2013-08-28 05:24:00,62.1,55.8,25.25,SSE,158,2.2,2.2,80,0.00,,---,0.00,VWS V14.01,2013-08-28 11:24:00,
2013-08-28 05:26:00,62.1,55.8,25.25,SSE,158,2.2,2.2,80,0.00,,---,0.00,VWS V14.01,2013-08-28 11:26:00,
2013-08-28 05:28:00,62.1,55.8,25.25,SSE,158,2.2,2.2,80,0.00,,---,0.00,VWS V14.01,2013-08-28 11:28:00,
2013-08-28 05:31:00,62.1,55.8,25.25,SSE,158,0.0,2.2,80,0.00,,---,0.00,VWS V14.01,2013-08-28 11:31:00,
2013-08-28 05:33:00,62.1,55.8,25.25,SSE,158,0.0,0.0,80,0.00,,---,0.00,VWS V14.01,2013-08-28 11:33:00,
2013-08-28 05:34:00,62.1,55.8,25.25,SSE,158,0.0,0.0,80,0.00,,---,0.00,VWS V14.01,2013-08-28 11:34:00,
2013-08-28 05:36:00,62.1,55.8,25.25,South,183,0.0,0.0,80,0.00,,---,0.00,VWS V14.01,2013-08-28 11:36:00,
2013-08-28 05:38:00,62.1,55.8,25.25,South,183,0.0,0.0,80,0.00,,---,0.00,VWS V14.01,2013-08-28 11:38:00,
2013-08-28 05:40:00,62.1,55.8,25.25,South,183,0.0,0.0,80,0.00,,---,0.00,VWS V14.01,2013-08-28 11:40:00,
2013-08-28 05:42:00,62.1,55.8,25.25,South,183,0.0,0.0,80,0.00,,---,0.00,VWS V14.01,2013-08-28 11:42:00,
2013-08-28 05:43:00,62.1,55.8,25.25,South,183,0.0,0.0,80,0.00,,---,0.00,VWS V14.01,2013-08-28 11:43:00,
2013-08-28 05:44:00,62.1,55.8,25.25,SSW,209,3.1,3.1,80,0.00,,---,0.00,VWS V14.01,2013-08-28 11:44:00,
2013-08-28 05:45:00,62.1,55.8,25.25,SSW,209,3.1,3.1,80,0.00,,---,0.00,VWS V14.01,2013-08-28 11:45:00,
2013-08-28 05:50:00,62.1,55.8,25.25,SSW,209,2.7,2.7,80,0.00,,---,0.00,VWS V14.01,2013-08-28 11:50:00,
2013-08-28 05:51:00,62.1,55.8,25.25,SSW,209,2.7,2.7,80,0.00,,---,0.00,VWS V14.01,2013-08-28 11:51:00,
2013-08-28 05:53:00,59.9,56.0,25.25,SSW,209,2.7,2.7,87,0.00,,---,0.00,VWS V14.01,2013-08-28 11:53:00,
2013-08-28 05:55:00,59.9,56.0,25.25,SSW,209,2.7,2.7,87,0.00,,---,0.00,VWS V14.01,2013-08-28 11:55:00,
2013-08-28 05:57:00,59.9,56.0,25.25,SSW,209,2.7,2.7,87,0.00,,---,0.00,VWS V14.01,2013-08-28 11:57:00,
2013-08-28 06:01:00,59.9,56.0,25.25,SSW,198,2.7,2.7,87,0.00,,---,0.00,VWS V14.01,2013-08-28 12:01:00,
2013-08-28 06:02:00,59.9,56.0,25.25,SSW,198,0.0,2.7,87,0.00,,---,0.00,VWS V14.01,2013-08-28 12:02:00,
2013-08-28 06:03:00,59.9,56.0,25.25,SSW,198,2.7,2.7,87,0.00,,---,0.00,VWS V14.01,2013-08-28 12:03:00,
2013-08-28 06:08:00,59.9,56.0,25.25,SSW,198,2.7,2.7,87,0.00,,---,0.00,VWS V14.01,2013-08-28 12:08:00,
2013-08-28 06:09:00,59.9,56.0,25.25,SSW,198,2.7,2.7,87,0.00,,---,0.00,VWS V14.01,2013-08-28 12:09:00,
2013-08-28 06:10:00,59.9,56.0,25.25,SSW,198,2.7,2.7,87,0.00,,---,0.00,VWS V14.01,2013-08-28 12:10:00,
2013-08-28 06:12:00,59.9,56.0,25.25,SSW,198,2.7,2.7,87,0.00,,---,0.00,VWS V14.01,2013-08-28 12:12:00,
2013-08-28 06:13:00,59.9,56.0,25.25,SSW,198,2.7,2.7,87,0.00,,---,0.00,VWS V14.01,2013-08-28 12:13:00,
2013-08-28 06:16:00,59.9,56.0,25.25,SSW,198,2.7,2.7,87,0.00,,---,0.00,VWS V14.01,2013-08-28 12:16:00,
2013-08-28 06:17:00,59.9,56.0,25.25,SSW,198,2.7,2.7,87,0.00,,---,0.00,VWS V14.01,2013-08-28 12:17:00,
2013-08-28 06:18:00,59.9,56.0,25.25,SSW,198,2.7,2.7,87,0.00,,---,0.00,VWS V14.01,2013-08-28 12:18:00,
2013-08-28 06:21:00,59.9,56.0,25.25,SSW,198,2.7,2.7,87,0.00,,---,0.00,VWS V14.01,2013-08-28 12:21:00,
2013-08-28 06:23:00,59.9,56.0,25.25,SSW,198,2.7,2.7,87,0.00,,---,0.00,VWS V14.01,2013-08-28 12:23:00,
2013-08-28 06:24:00,59.9,56.0,25.25,SE,129,0.0,2.7,87,0.00,,---,0.00,VWS V14.01,2013-08-28 12:24:00,
2013-08-28 06:27:00,59.9,56.0,25.25,SE,129,0.0,0.0,87,0.00,,---,0.00,VWS V14.01,2013-08-28 12:27:00,
2013-08-28 06:28:00,59.9,56.0,25.25,SE,129,0.0,0.0,87,0.00,,---,0.00,VWS V14.01,2013-08-28 12:28:00,
2013-08-28 06:30:00,59.9,56.0,25.25,SE,129,0.0,0.0,87,0.00,,---,0.00,VWS V14.01,2013-08-28 12:30:00,
2013-08-28 06:32:00,59.9,56.0,25.25,SE,129,0.0,0.0,87,0.00,,---,0.00,VWS V14.01,2013-08-28 12:32:00,
2013-08-28 06:35:00,59.9,56.0,25.25,SE,129,0.0,0.0,87,0.00,,---,0.00,VWS V14.01,2013-08-28 12:35:00,
2013-08-28 06:36:00,59.9,56.0,25.25,SE,129,0.0,0.0,87,0.00,,---,0.00,VWS V14.01,2013-08-28 12:36:00,
2013-08-28 06:37:00,59.9,56.0,25.25,SE,129,2.2,2.2,87,0.00,,---,0.00,VWS V14.01,2013-08-28 12:37:00,
2013-08-28 06:40:00,59.9,56.0,25.25,SE,129,2.2,2.2,87,0.00,,---,0.00,VWS V14.01,2013-08-28 12:40:00,
2013-08-28 06:41:00,59.9,56.0,25.25,SE,129,2.2,2.2,87,0.00,,---,0.00,VWS V14.01,2013-08-28 12:41:00,
2013-08-28 06:42:00,59.9,56.0,25.25,SE,129,2.2,2.2,87,0.00,,---,0.00,VWS V14.01,2013-08-28 12:42:00,
2013-08-28 06:43:00,61.0,56.1,25.25,SE,129,2.2,2.2,84,0.00,,---,0.00,VWS V14.01,2013-08-28 12:43:00,
2013-08-28 06:45:00,61.0,56.1,25.25,SE,129,2.2,2.2,84,0.00,,---,0.00,VWS V14.01,2013-08-28 12:45:00,
2013-08-28 06:48:00,61.0,56.1,25.25,SE,129,2.2,2.2,84,0.00,,---,0.00,VWS V14.01,2013-08-28 12:48:00,
2013-08-28 06:50:00,61.0,56.1,25.25,SE,129,2.2,2.2,84,0.00,,---,0.00,VWS V14.01,2013-08-28 12:50:00,
2013-08-28 06:51:00,61.0,56.1,25.25,SE,129,2.2,2.2,84,0.00,,---,0.00,VWS V14.01,2013-08-28 12:51:00,
2013-08-28 06:55:00,61.0,56.1,25.28,East,94,2.2,2.2,84,0.00,,---,0.00,VWS V14.01,2013-08-28 12:55:00,
2013-08-28 07:00:00,61.0,56.1,25.28,East,94,2.2,2.2,84,0.00,,---,0.00,VWS V14.01,2013-08-28 13:00:00,
2013-08-28 07:01:00,61.0,56.1,25.28,East,94,2.2,2.2,84,0.00,,---,0.00,VWS V14.01,2013-08-28 13:01:00,
2013-08-28 07:03:00,61.0,56.1,25.28,East,94,2.2,2.2,84,0.00,,---,0.00,VWS V14.01,2013-08-28 13:03:00,
2013-08-28 07:06:00,61.0,56.1,25.28,East,95,2.2,2.2,84,0.00,,---,0.00,VWS V14.01,2013-08-28 13:06:00,
2013-08-28 07:08:00,61.0,56.1,25.28,ENE,71,2.2,2.2,84,0.00,,---,0.00,VWS V14.01,2013-08-28 13:08:00,
2013-08-28 07:11:00,61.0,56.1,25.28,ENE,71,0.0,0.0,84,0.00,,---,0.00,VWS V14.01,2013-08-28 13:11:00,
2013-08-28 07:12:00,61.0,56.1,25.28,ENE,71,0.0,0.0,84,0.00,,---,0.00,VWS V14.01,2013-08-28 13:12:00,
2013-08-28 07:14:00,61.0,56.1,25.28,ENE,71,0.0,0.0,84,0.00,,---,0.00,VWS V14.01,2013-08-28 13:14:00,
2013-08-28 07:15:00,61.0,56.1,25.28,ENE,71,0.0,0.0,84,0.00,,---,0.00,VWS V14.01,2013-08-28 13:15:00,
2013-08-28 07:17:00,61.0,56.1,25.28,ENE,70,2.2,2.2,84,0.00,,---,0.00,VWS V14.01,2013-08-28 13:17:00,
2013-08-28 07:21:00,61.0,56.1,25.28,ENE,70,2.2,2.2,84,0.00,,---,0.00,VWS V14.01,2013-08-28 13:21:00,
2013-08-28 07:22:00,61.0,56.1,25.28,ENE,70,2.2,2.2,84,0.00,,---,0.00,VWS V14.01,2013-08-28 13:22:00,
2013-08-28 07:23:00,61.0,56.1,25.28,ENE,70,2.2,2.2,84,0.00,,---,0.00,VWS V14.01,2013-08-28 13:23:00,
2013-08-28 07:24:00,61.0,56.1,25.28,ENE,70,2.2,2.2,84,0.00,,---,0.00,VWS V14.01,2013-08-28 13:24:00,
2013-08-28 07:26:00,61.0,56.1,25.28,ENE,70,2.2,2.2,84,0.00,,---,0.00,VWS V14.01,2013-08-28 13:26:00,
2013-08-28 07:29:00,61.0,56.1,25.28,ENE,70,2.2,2.2,84,0.00,,---,0.00,VWS V14.01,2013-08-28 13:29:00,
2013-08-28 07:30:00,61.0,56.1,25.28,ENE,70,2.2,2.2,84,0.00,,---,0.00,VWS V14.01,2013-08-28 13:30:00,
2013-08-28 07:33:00,61.0,56.1,25.28,ENE,70,2.2,2.2,84,0.00,,---,0.00,VWS V14.01,2013-08-28 13:33:00,
2013-08-28 07:34:00,61.0,56.1,25.28,ENE,70,2.2,2.2,84,0.00,,---,0.00,VWS V14.01,2013-08-28 13:34:00,
2013-08-28 07:36:00,61.0,56.1,25.28,ENE,70,2.2,2.2,84,0.00,,---,0.00,VWS V14.01,2013-08-28 13:36:00,
2013-08-28 07:37:00,61.0,56.1,25.28,ENE,70,2.2,2.2,84,0.00,,---,0.00,VWS V14.01,2013-08-28 13:37:00,
2013-08-28 07:39:00,61.0,56.1,25.28,ENE,70,2.2,2.2,84,0.00,,---,0.00,VWS V14.01,2013-08-28 13:39:00,
2013-08-28 07:42:00,61.0,56.1,25.28,ENE,70,2.2,2.2,84,0.00,,---,0.00,VWS V14.01,2013-08-28 13:42:00,
2013-08-28 07:44:00,61.0,56.1,25.28,ENE,70,2.2,2.2,84,0.00,,---,0.00,VWS V14.01,2013-08-28 13:44:00,
2013-08-28 07:46:00,61.0,56.1,25.28,ENE,70,2.2,2.2,84,0.00,,---,0.00,VWS V14.01,2013-08-28 13:46:00,
2013-08-28 07:47:00,61.0,56.1,25.28,ENE,70,2.2,2.2,84,0.00,,---,0.00,VWS V14.01,2013-08-28 13:47:00,
2013-08-28 07:48:00,61.0,56.1,25.28,ENE,70,2.2,2.2,84,0.00,,---,0.00,VWS V14.01,2013-08-28 13:48:00,
2013-08-28 07:50:00,61.0,56.1,25.28,ENE,70,2.2,2.2,84,0.00,,---,0.00,VWS V14.01,2013-08-28 13:50:00,
2013-08-28 07:53:00,61.0,56.1,25.28,ENE,70,2.2,2.2,84,0.00,,---,0.00,VWS V14.01,2013-08-28 13:53:00,
2013-08-28 07:54:00,61.0,56.1,25.28,ENE,70,2.2,2.2,84,0.00,,---,0.00,VWS V14.01,2013-08-28 13:54:00,
2013-08-28 07:55:00,61.0,56.1,25.28,ENE,70,2.2,2.2,84,0.00,,---,0.00,VWS V14.01,2013-08-28 13:55:00,
2013-08-28 07:56:00,61.0,56.1,25.28,ENE,70,2.2,2.2,84,0.00,,---,0.00,VWS V14.01,2013-08-28 13:56:00,
2013-08-28 08:00:00,61.0,56.1,25.28,NE,41,3.1,3.1,84,0.00,,---,0.00,VWS V14.01,2013-08-28 14:00:00,
2013-08-28 08:01:00,61.0,56.1,25.28,NE,41,3.1,3.1,84,0.00,,---,0.00,VWS V14.01,2013-08-28 14:01:00,
2013-08-28 08:03:00,61.0,56.1,25.28,NE,41,3.1,3.1,84,0.00,,---,0.00,VWS V14.01,2013-08-28 14:03:00,
2013-08-28 08:04:00,61.0,56.1,25.28,NE,41,3.1,3.1,84,0.00,,---,0.00,VWS V14.01,2013-08-28 14:04:00,
2013-08-28 08:05:00,61.0,56.1,25.28,NE,41,3.1,3.1,84,0.00,,---,0.00,VWS V14.01,2013-08-28 14:05:00,
2013-08-28 08:08:00,61.0,56.1,25.28,NE,41,3.1,3.1,84,0.00,,---,0.00,VWS V14.01,2013-08-28 14:08:00,
2013-08-28 08:09:00,61.0,56.1,25.28,NE,41,3.1,3.1,84,0.00,,---,0.00,VWS V14.01,2013-08-28 14:09:00,
2013-08-28 08:11:00,61.0,56.1,25.28,NE,41,3.1,3.1,84,0.00,,---,0.00,VWS V14.01,2013-08-28 14:11:00,
2013-08-28 08:12:00,61.0,56.1,25.28,NE,41,3.1,3.1,84,0.00,,---,0.00,VWS V14.01,2013-08-28 14:12:00,
2013-08-28 08:14:00,61.0,56.1,25.28,NE,41,3.1,3.1,84,0.00,,---,0.00,VWS V14.01,2013-08-28 14:14:00,
2013-08-28 08:17:00,61.0,56.1,25.28,NE,41,3.1,3.1,84,0.00,,---,0.00,VWS V14.01,2013-08-28 14:17:00,
2013-08-28 08:18:00,61.0,56.1,25.28,NE,41,3.1,3.1,84,0.00,,---,0.00,VWS V14.01,2013-08-28 14:18:00,
2013-08-28 08:19:00,61.0,56.1,25.28,NE,41,3.1,3.1,84,0.00,,---,0.00,VWS V14.01,2013-08-28 14:19:00,
2013-08-28 08:20:00,61.0,56.1,25.28,NE,41,3.1,3.1,84,0.00,,---,0.00,VWS V14.01,2013-08-28 14:20:00,
2013-08-28 08:21:00,61.0,56.1,25.28,NE,41,3.1,3.1,84,0.00,,---,0.00,VWS V14.01,2013-08-28 14:21:00,
2013-08-28 08:23:00,61.0,56.1,25.28,NE,41,3.1,3.1,84,0.00,,---,0.00,VWS V14.01,2013-08-28 14:23:00,
2013-08-28 08:26:00,61.0,56.1,25.31,NNE,25,4.9,4.9,84,0.00,,---,0.00,VWS V14.01,2013-08-28 14:26:00,
2013-08-28 08:27:00,61.0,56.1,25.31,NNE,25,4.9,4.9,84,0.00,,---,0.00,VWS V14.01,2013-08-28 14:27:00,
2013-08-28 08:28:00,61.0,56.1,25.31,NNE,25,4.9,4.9,84,0.00,,---,0.00,VWS V14.01,2013-08-28 14:28:00,
2013-08-28 08:29:00,61.0,56.1,25.31,NNE,25,4.9,4.9,84,0.00,,---,0.00,VWS V14.01,2013-08-28 14:29:00,
2013-08-28 08:35:00,65.7,54.0,25.31,NNE,25,4.9,4.9,66,0.00,,---,0.00,VWS V14.01,2013-08-28 14:35:00,
2013-08-28 08:37:00,65.7,54.0,25.31,SE,134,2.7,4.9,66,0.00,,---,0.00,VWS V14.01,2013-08-28 14:37:00,
2013-08-28 08:38:00,65.7,54.0,25.31,SE,134,2.7,2.7,66,0.00,,---,0.00,VWS V14.01,2013-08-28 14:38:00,
2013-08-28 08:40:00,65.7,54.0,25.28,SE,134,2.7,2.7,66,0.00,,---,0.00,VWS V14.01,2013-08-28 14:40:00,
2013-08-28 08:42:00,65.8,54.6,25.28,SE,134,2.7,2.7,67,0.00,,---,0.00,VWS V14.01,2013-08-28 14:42:00,
2013-08-28 08:45:00,65.8,54.6,25.28,SE,134,2.7,2.7,67,0.00,,---,0.00,VWS V14.01,2013-08-28 14:45:00,
2013-08-28 08:46:00,65.8,54.6,25.28,SE,134,2.7,2.7,67,0.00,,---,0.00,VWS V14.01,2013-08-28 14:46:00,
2013-08-28 08:47:00,65.8,54.6,25.28,SE,134,2.7,2.7,67,0.00,,---,0.00,VWS V14.01,2013-08-28 14:47:00,
2013-08-28 08:50:00,65.8,54.6,25.31,ENE,69,2.7,5.4,67,0.00,,---,0.00,VWS V14.01,2013-08-28 14:50:00,
2013-08-28 08:52:00,65.8,54.6,25.31,ENE,69,2.7,2.7,67,0.00,,---,0.00,VWS V14.01,2013-08-28 14:52:00,
2013-08-28 08:53:00,66.7,52.9,25.31,ENE,69,2.7,2.7,61,0.00,,---,0.00,VWS V14.01,2013-08-28 14:53:00,
2013-08-28 08:56:00,66.7,53.3,25.31,ENE,69,2.7,2.7,62,0.00,,---,0.00,VWS V14.01,2013-08-28 14:56:00,
2013-08-28 08:57:00,66.7,53.3,25.31,ENE,69,2.7,2.7,62,0.00,,---,0.00,VWS V14.01,2013-08-28 14:57:00,
2013-08-28 08:59:00,66.7,53.3,25.31,ESE,108,3.1,3.1,62,0.00,,---,0.00,VWS V14.01,2013-08-28 14:59:00,
2013-08-28 09:01:00,66.7,53.3,25.31,ESE,108,3.1,3.1,62,0.00,,---,0.00,VWS V14.01,2013-08-28 15:01:00,
2013-08-28 09:02:00,66.7,53.3,25.31,ESE,108,3.1,3.1,62,0.00,,---,0.00,VWS V14.01,2013-08-28 15:02:00,
2013-08-28 09:04:00,66.7,53.3,25.31,South,176,2.2,3.1,62,0.00,,---,0.00,VWS V14.01,2013-08-28 15:04:00,
2013-08-28 09:05:00,66.7,53.3,25.31,South,176,2.2,2.2,62,0.00,,---,0.00,VWS V14.01,2013-08-28 15:05:00,
2013-08-28 09:08:00,67.5,53.6,25.31,SSW,209,2.2,2.2,61,0.00,,---,0.00,VWS V14.01,2013-08-28 15:08:00,
2013-08-28 09:09:00,67.5,53.6,25.31,SSW,209,2.2,2.2,61,0.00,,---,0.00,VWS V14.01,2013-08-28 15:09:00,
2013-08-28 09:10:00,67.5,53.6,25.31,SSW,209,2.2,2.2,61,0.00,,---,0.00,VWS V14.01,2013-08-28 15:10:00,
2013-08-28 09:13:00,67.5,53.6,25.31,SSW,209,2.2,2.2,61,0.00,,---,0.00,VWS V14.01,2013-08-28 15:13:00,
2013-08-28 09:14:00,67.5,53.6,25.31,SSW,209,2.2,2.2,61,0.00,,---,0.00,VWS V14.01,2013-08-28 15:14:00,
2013-08-28 09:16:00,67.5,53.6,25.31,SSW,209,2.2,2.2,61,0.00,,---,0.00,VWS V14.01,2013-08-28 15:16:00,
2013-08-28 09:17:00,67.5,53.6,25.31,SE,125,3.6,3.6,61,0.00,,---,0.00,VWS V14.01,2013-08-28 15:17:00,
2013-08-28 09:19:00,67.5,53.6,25.31,SE,125,3.6,3.6,61,0.00,,---,0.00,VWS V14.01,2013-08-28 15:19:00,
2013-08-28 09:20:00,67.5,53.6,25.31,SE,125,3.6,3.6,61,0.00,,---,0.00,VWS V14.01,2013-08-28 15:20:00,
2013-08-28 09:21:00,67.5,53.6,25.31,SE,125,3.6,3.6,61,0.00,,---,0.00,VWS V14.01,2013-08-28 15:21:00,
2013-08-28 09:23:00,67.5,53.6,25.31,NE,55,5.4,5.4,61,0.00,,---,0.00,VWS V14.01,2013-08-28 15:23:00,
2013-08-28 09:24:00,67.5,53.6,25.31,NE,55,5.4,5.4,61,0.00,,---,0.00,VWS V14.01,2013-08-28 15:24:00,
2013-08-28 09:25:00,67.5,53.6,25.31,NE,55,5.4,5.4,61,0.00,,---,0.00,VWS V14.01,2013-08-28 15:25:00,
2013-08-28 09:27:00,67.5,53.6,25.31,NE,55,5.4,5.4,61,0.00,,---,0.00,VWS V14.01,2013-08-28 15:27:00,
2013-08-28 09:28:00,67.5,53.6,25.31,NE,55,5.4,5.4,61,0.00,,---,0.00,VWS V14.01,2013-08-28 15:28:00,
2013-08-28 09:30:00,67.5,53.6,25.31,NE,55,5.4,5.4,61,0.00,,---,0.00,VWS V14.01,2013-08-28 15:30:00,
2013-08-28 09:33:00,67.5,53.6,25.31,East,81,0.0,5.4,61,0.00,,---,0.00,VWS V14.01,2013-08-28 15:33:00,
2013-08-28 09:35:00,67.5,53.6,25.31,ENE,68,2.2,2.2,61,0.00,,---,0.00,VWS V14.01,2013-08-28 15:35:00,
2013-08-28 09:36:00,67.5,53.6,25.31,ENE,68,2.2,2.2,61,0.00,,---,0.00,VWS V14.01,2013-08-28 15:36:00,
2013-08-28 09:37:00,67.5,53.6,25.31,ENE,68,2.2,2.2,61,0.00,,---,0.00,VWS V14.01,2013-08-28 15:37:00,
2013-08-28 09:38:00,67.5,53.6,25.31,ENE,68,2.2,2.2,61,0.00,,---,0.00,VWS V14.01,2013-08-28 15:38:00,
2013-08-28 09:41:00,67.5,53.6,25.31,ENE,68,2.2,2.2,61,0.00,,---,0.00,VWS V14.01,2013-08-28 15:41:00,
2013-08-28 09:43:00,67.5,53.6,25.31,ENE,68,2.2,2.2,61,0.00,,---,0.00,VWS V14.01,2013-08-28 15:43:00,
2013-08-28 09:44:00,67.5,53.6,25.31,East,97,3.6,3.6,61,0.00,,---,0.00,VWS V14.01,2013-08-28 15:44:00,
2013-08-28 09:45:00,67.6,51.9,25.31,East,97,3.6,3.6,57,0.00,,---,0.00,VWS V14.01,2013-08-28 15:45:00,
2013-08-28 09:49:00,67.6,51.9,25.31,East,97,3.6,3.6,57,0.00,,---,0.00,VWS V14.01,2013-08-28 15:49:00,
2013-08-28 09:50:00,67.6,51.9,25.31,East,97,3.6,3.6,57,0.00,,---,0.00,VWS V14.01,2013-08-28 15:50:00,
2013-08-28 09:51:00,67.6,51.9,25.31,East,97,3.6,3.6,57,0.00,,---,0.00,VWS V14.01,2013-08-28 15:51:00,
2013-08-28 09:52:00,67.6,51.9,25.31,East,97,3.6,3.6,57,0.00,,---,0.00,VWS V14.01,2013-08-28 15:52:00,
2013-08-28 09:55:00,67.6,51.9,25.31,South,182,3.6,3.6,57,0.00,,---,0.00,VWS V14.01,2013-08-28 15:55:00,
2013-08-28 09:56:00,67.6,51.9,25.31,South,182,3.6,3.6,57,0.00,,---,0.00,VWS V14.01,2013-08-28 15:56:00,
2013-08-28 09:59:00,67.6,51.9,25.31,East,81,10.5,10.5,57,0.00,,---,0.00,VWS V14.01,2013-08-28 15:59:00,
2013-08-28 10:01:00,67.6,51.9,25.31,East,81,10.5,10.5,57,0.00,,---,0.00,VWS V14.01,2013-08-28 16:01:00,
2013-08-28 10:03:00,67.6,51.9,25.31,East,81,10.5,10.5,57,0.00,,---,0.00,VWS V14.01,2013-08-28 16:03:00,
2013-08-28 10:04:00,67.6,51.9,25.31,East,81,10.5,10.5,57,0.00,,---,0.00,VWS V14.01,2013-08-28 16:04:00,
2013-08-28 10:05:00,67.6,51.9,25.31,East,81,10.5,10.5,57,0.00,,---,0.00,VWS V14.01,2013-08-28 16:05:00,
2013-08-28 10:06:00,67.6,51.9,25.31,East,81,10.5,10.5,57,0.00,,---,0.00,VWS V14.01,2013-08-28 16:06:00,
2013-08-28 10:10:00,66.9,51.7,25.31,ENE,63,5.8,5.8,58,0.00,,---,0.00,VWS V14.01,2013-08-28 16:10:00,
2013-08-28 10:11:00,66.9,51.7,25.31,ENE,63,5.8,5.8,58,0.00,,---,0.00,VWS V14.01,2013-08-28 16:11:00,
2013-08-28 10:12:00,66.9,51.7,25.31,ENE,63,5.8,5.8,58,0.00,,---,0.00,VWS V14.01,2013-08-28 16:12:00,
2013-08-28 10:16:00,66.9,52.1,25.31,ENE,63,5.8,5.8,59,0.00,,---,0.00,VWS V14.01,2013-08-28 16:16:00,
2013-08-28 10:17:00,66.9,52.1,25.31,ENE,63,5.8,5.8,59,0.00,,---,0.00,VWS V14.01,2013-08-28 16:17:00,
2013-08-28 10:18:00,67.1,52.3,25.31,ENE,63,5.8,5.8,59,0.00,,---,0.00,VWS V14.01,2013-08-28 16:18:00,
2013-08-28 10:20:00,67.1,52.3,25.31,ENE,63,5.8,5.8,59,0.00,,---,0.00,VWS V14.01,2013-08-28 16:20:00,
2013-08-28 10:23:00,67.3,52.0,25.31,NE,53,4.0,4.0,58,0.00,,---,0.00,VWS V14.01,2013-08-28 16:23:00,
2013-08-28 10:24:00,67.3,51.5,25.31,NE,53,4.0,4.0,57,0.00,,---,0.00,VWS V14.01,2013-08-28 16:24:00,
2013-08-28 10:26:00,67.3,51.5,25.31,NE,53,4.0,4.0,57,0.00,,---,0.00,VWS V14.01,2013-08-28 16:26:00,
2013-08-28 10:28:00,67.5,51.2,25.31,NE,53,4.0,4.0,56,0.00,,---,0.00,VWS V14.01,2013-08-28 16:28:00,
2013-08-28 10:32:00,67.8,52.5,25.28,NE,53,4.0,4.0,58,0.00,,---,0.00,VWS V14.01,2013-08-28 16:32:00,
2013-08-28 10:33:00,67.8,52.5,25.28,NE,53,4.0,4.0,58,0.00,,---,0.00,VWS V14.01,2013-08-28 16:33:00,
2013-08-28 10:34:00,68.0,51.7,25.28,NE,53,4.0,4.0,56,0.00,,---,0.00,VWS V14.01,2013-08-28 16:34:00,
2013-08-28 10:36:00,68.2,52.9,25.28,NE,53,4.0,4.0,58,0.00,,---,0.00,VWS V14.01,2013-08-28 16:36:00,
2013-08-28 10:38:00,68.4,52.1,25.28,NE,53,4.0,4.0,56,0.00,,---,0.00,VWS V14.01,2013-08-28 16:38:00,
2013-08-28 10:39:00,68.4,52.1,25.28,NE,53,4.0,4.0,56,0.00,,---,0.00,VWS V14.01,2013-08-28 16:39:00,
2013-08-28 10:40:00,68.4,52.1,25.28,NE,53,4.0,4.0,56,0.00,,---,0.00,VWS V14.01,2013-08-28 16:40:00,
2013-08-28 10:42:00,68.5,52.7,25.28,NE,53,4.0,4.0,57,0.00,,---,0.00,VWS V14.01,2013-08-28 16:42:00,
2013-08-28 10:45:00,68.7,52.9,25.28,NE,53,4.0,4.0,57,0.00,,---,0.00,VWS V14.01,2013-08-28 16:45:00,
2013-08-28 10:47:00,68.7,53.4,25.28,East,96,4.9,4.9,58,0.00,,---,0.00,VWS V14.01,2013-08-28 16:47:00,
2013-08-28 10:48:00,68.7,51.9,25.28,East,96,4.9,4.9,55,0.00,,---,0.00,VWS V14.01,2013-08-28 16:48:00,
2013-08-28 10:49:00,68.9,52.6,25.28,East,96,4.9,4.9,56,0.00,,---,0.00,VWS V14.01,2013-08-28 16:49:00,
2013-08-28 10:50:00,68.9,52.1,25.28,NE,53,5.8,5.8,55,0.00,,---,0.00,VWS V14.01,2013-08-28 16:50:00,
2013-08-28 10:55:00,69.1,51.8,25.28,East,89,4.0,4.0,54,0.00,,---,0.00,VWS V14.01,2013-08-28 16:55:00,
2013-08-28 10:56:00,69.1,52.2,25.28,East,89,4.0,4.0,55,0.00,,---,0.00,VWS V14.01,2013-08-28 16:56:00,
2013-08-28 10:57:00,69.1,52.2,25.28,East,89,4.0,4.0,55,0.00,,---,0.00,VWS V14.01,2013-08-28 16:57:00,
2013-08-28 10:59:00,69.3,51.9,25.28,East,91,5.4,5.4,54,0.00,,---,0.00,VWS V14.01,2013-08-28 16:59:00,
2013-08-28 11:01:00,69.4,52.1,25.28,ENE,57,4.0,5.4,54,0.00,,---,0.00,VWS V14.01,2013-08-28 17:01:00,
2013-08-28 11:02:00,69.4,52.1,25.28,ENE,57,4.0,4.0,54,0.00,,---,0.00,VWS V14.01,2013-08-28 17:02:00,
2013-08-28 11:06:00,69.4,52.6,25.28,East,81,4.0,4.0,55,0.00,,---,0.00,VWS V14.01,2013-08-28 17:06:00,
2013-08-28 11:07:00,69.3,51.9,25.28,East,81,4.0,4.0,54,0.00,,---,0.00,VWS V14.01,2013-08-28 17:07:00,
2013-08-28 11:08:00,69.3,51.4,25.28,East,81,4.0,4.0,53,0.00,,---,0.00,VWS V14.01,2013-08-28 17:08:00,
2013-08-28 11:11:00,69.1,51.8,25.28,East,81,4.0,4.0,54,0.00,,---,0.00,VWS V14.01,2013-08-28 17:11:00,
2013-08-28 11:13:00,69.1,52.2,25.28,East,89,4.0,4.0,55,0.00,,---,0.00,VWS V14.01,2013-08-28 17:13:00,
2013-08-28 11:14:00,68.9,51.6,25.28,ENE,63,7.2,7.2,54,0.00,,---,0.00,VWS V14.01,2013-08-28 17:14:00,
2013-08-28 11:15:00,68.9,51.6,25.28,ENE,63,7.2,7.2,54,0.00,,---,0.00,VWS V14.01,2013-08-28 17:15:00,
2013-08-28 11:19:00,68.9,52.1,25.25,ENE,58,4.9,4.9,55,0.00,,---,0.00,VWS V14.01,2013-08-28 17:19:00,
2013-08-28 11:21:00,68.9,52.6,25.25,ENE,71,5.4,5.4,56,0.00,,---,0.00,VWS V14.01,2013-08-28 17:21:00,
2013-08-28 11:22:00,68.9,52.6,25.25,ENE,71,5.4,5.4,56,0.00,,---,0.00,VWS V14.01,2013-08-28 17:22:00,
2013-08-28 11:23:00,68.9,52.6,25.25,ENE,59,5.4,5.4,56,0.00,,---,0.00,VWS V14.01,2013-08-28 17:23:00,
2013-08-28 11:24:00,68.9,52.1,25.25,ENE,59,5.4,5.4,55,0.00,,---,0.00,VWS V14.01,2013-08-28 17:24:00,
2013-08-28 11:25:00,68.9,52.1,25.25,North,1,5.8,5.8,55,0.00,,---,0.00,VWS V14.01,2013-08-28 17:25:00,
2013-08-28 11:28:00,68.9,52.6,25.25,East,98,4.9,4.9,56,0.00,,---,0.00,VWS V14.01,2013-08-28 17:28:00,
2013-08-28 11:29:00,68.9,52.6,25.25,East,98,4.9,4.9,56,0.00,,---,0.00,VWS V14.01,2013-08-28 17:29:00,
2013-08-28 11:30:00,68.7,52.9,25.25,ESE,110,8.3,8.3,57,0.00,,---,0.00,VWS V14.01,2013-08-28 17:30:00,
2013-08-28 11:33:00,68.7,52.9,25.28,ESE,110,8.3,8.3,57,0.00,,---,0.00,VWS V14.01,2013-08-28 17:33:00,
2013-08-28 11:38:00,68.7,52.4,25.28,ESE,103,5.4,5.4,56,0.00,,---,0.00,VWS V14.01,2013-08-28 17:38:00,
2013-08-28 11:39:00,68.7,52.4,25.28,ESE,105,5.4,5.4,56,0.00,,---,0.00,VWS V14.01,2013-08-28 17:39:00,
2013-08-28 11:43:00,68.9,52.6,25.28,East,95,5.4,5.4,56,0.00,,---,0.00,VWS V14.01,2013-08-28 17:43:00,
2013-08-28 11:45:00,69.1,53.2,25.28,East,91,5.8,5.8,57,0.00,,---,0.00,VWS V14.01,2013-08-28 17:45:00,
2013-08-28 11:46:00,69.3,53.4,25.28,East,91,5.8,5.8,57,0.00,,---,0.00,VWS V14.01,2013-08-28 17:46:00,
2013-08-28 11:47:00,69.3,53.4,25.28,ESE,118,5.4,5.8,57,0.00,,---,0.00,VWS V14.01,2013-08-28 17:47:00,
2013-08-28 11:51:00,69.4,52.6,25.28,ESE,118,5.4,5.4,55,0.00,,---,0.00,VWS V14.01,2013-08-28 17:51:00,
2013-08-28 11:52:00,69.4,52.1,25.28,East,98,4.0,5.4,54,0.00,,---,0.00,VWS V14.01,2013-08-28 17:52:00,
2013-08-28 11:53:00,69.4,52.6,25.28,East,98,4.0,4.0,55,0.00,,---,0.00,VWS V14.01,2013-08-28 17:53:00,
2013-08-28 11:54:00,69.4,52.1,25.28,East,98,4.0,4.0,54,0.00,,---,0.00,VWS V14.01,2013-08-28 17:54:00,
2013-08-28 11:58:00,69.4,52.6,25.28,ENE,67,4.0,8.1,55,0.00,,---,0.00,VWS V14.01,2013-08-28 17:58:00,
2013-08-28 11:59:00,69.6,53.2,25.28,ENE,67,4.0,4.0,56,0.00,,---,0.00,VWS V14.01,2013-08-28 17:59:00,
2013-08-28 12:00:00,69.6,53.2,25.28,East,99,6.3,6.3,56,0.00,,---,0.00,VWS V14.01,2013-08-28 18:00:00,
2013-08-28 12:01:00,69.6,52.3,25.28,East,99,6.3,6.3,54,0.00,,---,0.00,VWS V14.01,2013-08-28 18:01:00,
2013-08-28 12:04:00,69.8,51.9,25.28,East,99,6.3,6.3,53,0.00,,---,0.00,VWS V14.01,2013-08-28 18:04:00,
2013-08-28 12:06:00,69.8,51.9,25.28,ENE,71,6.3,6.3,53,0.00,,---,0.00,VWS V14.01,2013-08-28 18:06:00,
2013-08-28 12:09:00,70.2,52.2,25.25,ENE,71,6.3,6.3,53,0.00,,---,0.00,VWS V14.01,2013-08-28 18:09:00,
2013-08-28 12:10:00,70.2,52.8,25.25,ENE,73,3.1,6.3,54,0.00,,---,0.00,VWS V14.01,2013-08-28 18:10:00,
2013-08-28 12:11:00,70.2,52.2,25.25,ENE,73,3.1,3.1,53,0.00,,---,0.00,VWS V14.01,2013-08-28 18:11:00,
2013-08-28 12:13:00,70.5,52.1,25.25,ENE,73,3.1,3.1,52,0.00,,---,0.00,VWS V14.01,2013-08-28 18:13:00,
2013-08-28 12:17:00,70.9,52.9,25.25,NE,54,3.1,3.1,53,0.00,,---,0.00,VWS V14.01,2013-08-28 18:17:00,
2013-08-28 12:18:00,71.1,53.6,25.25,NE,54,3.1,3.1,54,0.00,,---,0.00,VWS V14.01,2013-08-28 18:18:00,
2013-08-28 12:19:00,71.2,53.8,25.25,East,95,2.7,3.1,54,0.00,,---,0.00,VWS V14.01,2013-08-28 18:19:00,
2013-08-28 12:22:00,72.0,52.9,25.25,NE,48,4.0,4.0,51,0.00,,---,0.00,VWS V14.01,2013-08-28 18:22:00,
2013-08-28 12:25:00,72.5,53.4,25.25,ENE,64,7.6,7.6,51,0.00,,---,0.00,VWS V14.01,2013-08-28 18:25:00,
2013-08-28 12:28:00,72.7,53.5,25.25,ENE,64,7.6,7.6,51,0.00,,---,0.00,VWS V14.01,2013-08-28 18:28:00,
2013-08-28 12:31:00,72.9,52.6,25.25,ESE,115,4.0,4.0,49,0.00,,---,0.00,VWS V14.01,2013-08-28 18:31:00,
2013-08-28 12:32:00,72.9,52.6,25.25,NNE,16,6.3,6.3,49,0.00,,---,0.00,VWS V14.01,2013-08-28 18:32:00,
2013-08-28 12:36:00,72.1,50.2,25.25,ENE,66,8.1,8.1,46,0.00,,---,0.00,VWS V14.01,2013-08-28 18:36:00,
2013-08-28 12:37:00,72.1,51.4,25.25,ENE,66,8.1,8.1,48,0.00,,---,0.00,VWS V14.01,2013-08-28 18:37:00,
2013-08-28 12:38:00,72.1,51.9,25.25,ENE,66,8.1,8.1,49,0.00,,---,0.00,VWS V14.01,2013-08-28 18:38:00,
2013-08-28 12:39:00,72.1,52.5,25.25,ENE,66,8.1,8.1,50,0.00,,---,0.00,VWS V14.01,2013-08-28 18:39:00,
2013-08-28 12:43:00,72.1,51.9,25.25,ESE,117,4.0,4.0,49,0.00,,---,0.00,VWS V14.01,2013-08-28 18:43:00,
2013-08-28 12:44:00,72.0,51.2,25.25,ESE,117,4.0,4.0,48,0.00,,---,0.00,VWS V14.01,2013-08-28 18:44:00,
2013-08-28 12:47:00,71.6,52.0,25.25,NE,54,6.3,6.3,50,0.00,,---,0.00,VWS V14.01,2013-08-28 18:47:00,
2013-08-28 12:48:00,71.6,52.0,25.25,NE,54,6.3,6.3,50,0.00,,---,0.00,VWS V14.01,2013-08-28 18:48:00,
2013-08-28 12:49:00,71.6,52.0,25.25,NE,54,6.3,6.3,50,0.00,,---,0.00,VWS V14.01,2013-08-28 18:49:00,
2013-08-28 12:51:00,71.4,52.4,25.25,NE,45,4.9,4.9,51,0.00,,---,0.00,VWS V14.01,2013-08-28 18:51:00,
2013-08-28 12:52:00,71.4,52.4,25.25,NE,45,4.9,4.9,51,0.00,,---,0.00,VWS V14.01,2013-08-28 18:52:00,
2013-08-28 12:55:00,71.2,52.7,25.25,SE,132,5.8,5.8,52,0.00,,---,0.00,VWS V14.01,2013-08-28 18:55:00,
2013-08-28 12:57:00,71.4,52.4,25.25,SE,132,5.8,5.8,51,0.00,,---,0.00,VWS V14.01,2013-08-28 18:57:00,
2013-08-28 12:59:00,71.4,52.4,25.25,ESE,114,5.4,5.8,51,0.00,,---,0.00,VWS V14.01,2013-08-28 18:59:00,
2013-08-28 13:03:00,71.6,52.0,25.25,East,96,5.8,5.8,50,0.00,,---,0.00,VWS V14.01,2013-08-28 19:03:00,
2013-08-28 13:04:00,71.6,52.0,25.25,ESE,104,5.4,5.8,50,0.00,,---,0.00,VWS V14.01,2013-08-28 19:04:00,
2013-08-28 13:05:00,71.8,52.7,25.25,East,93,6.3,6.3,51,0.00,,---,0.00,VWS V14.01,2013-08-28 19:05:00,
2013-08-28 13:06:00,71.8,51.6,25.25,East,84,4.0,6.3,49,0.00,,---,0.00,VWS V14.01,2013-08-28 19:06:00,
2013-08-28 13:09:00,72.0,51.2,25.25,ENE,70,2.7,5.8,48,0.00,,---,0.00,VWS V14.01,2013-08-28 19:09:00,
2013-08-28 13:12:00,72.1,53.0,25.25,ESE,116,3.1,6.3,51,0.00,,---,0.00,VWS V14.01,2013-08-28 19:12:00,
2013-08-28 13:13:00,72.1,51.9,25.25,SE,127,4.0,4.0,49,0.00,,---,0.00,VWS V14.01,2013-08-28 19:13:00,
2013-08-28 13:14:00,72.3,53.2,25.25,NE,50,3.6,4.0,51,0.00,,---,0.00,VWS V14.01,2013-08-28 19:14:00,
2013-08-28 13:17:00,72.5,51.7,25.25,East,98,5.8,5.8,48,0.00,,---,0.00,VWS V14.01,2013-08-28 19:17:00,
2013-08-28 13:18:00,72.5,51.2,25.25,ESE,114,7.6,7.6,47,0.00,,---,0.00,VWS V14.01,2013-08-28 19:18:00,
2013-08-28 13:20:00,72.5,50.6,25.25,NNE,20,4.9,4.9,46,0.00,,---,0.00,VWS V14.01,2013-08-28 19:20:00,
2013-08-28 13:21:00,72.7,53.0,25.25,NE,49,3.1,5.4,50,0.00,,---,0.00,VWS V14.01,2013-08-28 19:21:00,
2013-08-28 13:23:00,72.7,50.7,25.25,ESE,102,6.3,6.3,46,0.00,,---,0.00,VWS V14.01,2013-08-28 19:23:00,
2013-08-28 13:27:00,72.9,52.6,25.25,NE,42,4.9,5.8,49,0.00,,---,0.00,VWS V14.01,2013-08-28 19:27:00,
2013-08-28 13:28:00,72.9,53.2,25.25,ENE,60,2.7,4.9,50,0.00,,---,0.00,VWS V14.01,2013-08-28 19:28:00,
2013-08-28 13:30:00,73.0,52.2,25.25,NE,42,0.0,4.9,48,0.00,,---,0.00,VWS V14.01,2013-08-28 19:30:00,
2013-08-28 13:31:00,73.0,53.3,25.25,ENE,61,4.0,4.0,50,0.00,,---,0.00,VWS V14.01,2013-08-28 19:31:00,
2013-08-28 13:34:00,73.2,53.5,25.25,ENE,65,2.2,2.7,50,0.00,,---,0.00,VWS V14.01,2013-08-28 19:34:00,
2013-08-28 13:36:00,73.8,52.9,25.25,NNE,14,3.6,3.6,48,0.00,,---,0.00,VWS V14.01,2013-08-28 19:36:00,
2013-08-28 13:37:00,73.8,52.9,25.25,NE,53,3.6,3.6,48,0.00,,---,0.00,VWS V14.01,2013-08-28 19:37:00,
2013-08-28 13:38:00,73.8,53.4,25.25,ESE,106,3.6,3.6,49,0.00,,---,0.00,VWS V14.01,2013-08-28 19:38:00,
2013-08-28 13:39:00,73.9,53.0,25.25,ESE,110,4.0,5.4,48,0.00,,---,0.00,VWS V14.01,2013-08-28 19:39:00,
2013-08-28 13:42:00,73.6,51.5,25.25,East,81,2.2,2.7,46,0.00,,---,0.00,VWS V14.01,2013-08-28 19:42:00,
2013-08-28 13:43:00,73.6,51.5,25.25,East,79,0.0,2.2,46,0.00,,---,0.00,VWS V14.01,2013-08-28 19:43:00,
2013-08-28 13:44:00,73.6,52.1,25.25,ENE,62,3.6,3.6,47,0.00,,---,0.00,VWS V14.01,2013-08-28 19:44:00,
2013-08-28 13:45:00,73.6,52.1,25.25,East,86,5.4,5.4,47,0.00,,---,0.00,VWS V14.01,2013-08-28 19:45:00,
2013-08-28 13:48:00,73.2,51.8,25.25,East,83,3.6,3.6,47,0.00,,---,0.00,VWS V14.01,2013-08-28 19:48:00,
2013-08-28 13:50:00,72.7,51.3,25.25,ESE,106,3.6,4.9,47,0.00,,---,0.00,VWS V14.01,2013-08-28 19:50:00,
2013-08-28 13:52:00,72.1,52.5,25.25,ENE,62,4.0,4.0,50,0.00,,---,0.00,VWS V14.01,2013-08-28 19:52:00,
2013-08-28 13:53:00,72.1,51.9,25.25,ESE,108,3.1,4.9,49,0.00,,---,0.00,VWS V14.01,2013-08-28 19:53:00,
2013-08-28 13:55:00,71.8,52.2,25.25,East,79,3.1,7.6,50,0.00,,---,0.00,VWS V14.01,2013-08-28 19:55:00,
2013-08-28 13:57:00,71.6,52.0,25.25,ESE,109,2.2,2.7,50,0.00,,---,0.00,VWS V14.01,2013-08-28 19:57:00,
2013-08-28 13:58:00,71.4,52.4,25.25,ESE,109,2.7,3.1,51,0.00,,---,0.00,VWS V14.01,2013-08-28 19:58:00,
2013-08-28 13:59:00,71.4,52.4,25.25,ENE,65,4.0,4.0,51,0.00,,---,0.00,VWS V14.01,2013-08-28 19:59:00,
2013-08-28 14:00:00,71.4,52.4,25.25,ENE,74,2.7,4.0,51,0.00,,---,0.00,VWS V14.01,2013-08-28 20:00:00,
2013-08-28 14:02:00,71.4,52.9,25.25,East,81,4.5,5.8,52,0.00,,---,0.00,VWS V14.01,2013-08-28 20:02:00,
2013-08-28 14:03:00,71.4,52.9,25.25,ESE,110,5.4,5.4,52,0.00,,---,0.00,VWS V14.01,2013-08-28 20:03:00,
2013-08-28 14:04:00,71.4,52.9,25.25,ENE,77,3.1,5.4,52,0.00,,---,0.00,VWS V14.01,2013-08-28 20:04:00,
2013-08-28 14:06:00,71.4,53.9,25.25,NE,53,3.6,3.6,54,0.00,,---,0.00,VWS V14.01,2013-08-28 20:06:00,
2013-08-28 14:08:00,71.6,53.6,25.22,ESE,123,3.6,3.6,53,0.00,,---,0.00,VWS V14.01,2013-08-28 20:08:00,
2013-08-28 14:11:00,71.8,53.2,25.22,ESE,117,5.4,5.4,52,0.00,,---,0.00,VWS V14.01,2013-08-28 20:11:00,
2013-08-28 14:13:00,72.0,52.3,25.22,SE,142,0.0,4.9,50,0.00,,---,0.00,VWS V14.01,2013-08-28 20:13:00,
2013-08-28 14:14:00,72.0,52.3,25.22,SSW,202,2.7,2.7,50,0.00,,---,0.00,VWS V14.01,2013-08-28 20:14:00,
2013-08-28 14:15:00,72.0,52.9,25.22,East,93,2.7,3.1,51,0.00,,---,0.00,VWS V14.01,2013-08-28 20:15:00,
2013-08-28 14:16:00,72.1,53.6,25.22,NE,34,0.0,3.1,52,0.00,,---,0.00,VWS V14.01,2013-08-28 20:16:00,
2013-08-28 14:17:00,72.1,53.6,25.22,NNW,348,3.6,3.6,52,0.00,,---,0.00,VWS V14.01,2013-08-28 20:17:00,
2013-08-28 14:18:00,72.1,53.6,25.22,North,353,3.1,4.0,52,0.00,,---,0.00,VWS V14.01,2013-08-28 20:18:00,
2013-08-28 14:20:00,72.7,53.0,25.22,NE,45,5.8,5.8,50,0.00,,---,0.00,VWS V14.01,2013-08-28 20:20:00,
2013-08-28 14:22:00,73.0,53.9,25.22,ENE,60,0.0,2.7,51,0.00,,---,0.00,VWS V14.01,2013-08-28 20:22:00,
2013-08-28 14:24:00,73.2,54.0,25.22,NNE,23,2.7,3.6,51,0.00,,---,0.00,VWS V14.01,2013-08-28 20:24:00,
2013-08-28 14:25:00,73.4,52.5,25.22,NNE,26,3.6,4.0,48,0.00,,---,0.00,VWS V14.01,2013-08-28 20:25:00,
2013-08-28 14:26:00,73.6,51.5,25.22,West,280,3.6,6.3,46,0.00,,---,0.00,VWS V14.01,2013-08-28 20:26:00,
2013-08-28 14:29:00,73.9,51.9,25.22,WNW,303,2.7,4.0,46,0.00,,---,0.00,VWS V14.01,2013-08-28 20:29:00,
2013-08-28 14:31:00,73.9,52.5,25.22,NNE,29,3.6,3.6,47,0.00,,---,0.00,VWS V14.01,2013-08-28 20:31:00,
2013-08-28 14:32:00,74.1,51.4,25.22,NNW,340,3.6,3.6,45,0.00,,---,0.00,VWS V14.01,2013-08-28 20:32:00,
2013-08-28 14:33:00,74.3,53.4,25.22,NNE,23,2.7,3.6,48,0.00,,---,0.00,VWS V14.01,2013-08-28 20:33:00,
2013-08-28 14:34:00,74.3,51.6,25.22,North,0,3.6,3.6,45,0.00,,---,0.00,VWS V14.01,2013-08-28 20:34:00,
2013-08-28 14:39:00,74.3,51.0,25.22,ENE,68,5.8,6.3,44,0.00,,---,0.00,VWS V14.01,2013-08-28 20:39:00,
2013-08-28 14:40:00,73.9,50.7,25.22,ESE,105,6.3,6.3,44,0.00,,---,0.00,VWS V14.01,2013-08-28 20:40:00,
2013-08-28 14:42:00,73.8,50.5,25.22,SE,124,4.0,5.8,44,0.00,,---,0.00,VWS V14.01,2013-08-28 20:42:00,
2013-08-28 14:43:00,73.6,51.0,25.22,SSE,161,4.0,4.0,45,0.00,,---,0.00,VWS V14.01,2013-08-28 20:43:00,
2013-08-28 14:45:00,73.4,51.4,25.22,East,83,5.4,5.4,46,0.00,,---,0.00,VWS V14.01,2013-08-28 20:45:00,
2013-08-28 14:48:00,73.2,51.2,25.22,ENE,58,5.8,6.3,46,0.00,,---,0.00,VWS V14.01,2013-08-28 20:48:00,
2013-08-28 14:50:00,72.9,50.9,25.22,ENE,62,6.3,6.3,46,0.00,,---,0.00,VWS V14.01,2013-08-28 20:50:00,
2013-08-28 14:51:00,72.9,50.9,25.22,ENE,57,3.6,6.3,46,0.00,,---,0.00,VWS V14.01,2013-08-28 20:51:00,
2013-08-28 14:54:00,72.5,51.2,25.22,NE,47,2.7,2.7,47,0.00,,---,0.00,VWS V14.01,2013-08-28 20:54:00,
2013-08-28 14:58:00,72.7,51.3,25.22,ESE,115,0.0,3.1,47,0.00,,---,0.00,VWS V14.01,2013-08-28 20:58:00,
2013-08-28 14:59:00,72.9,52.0,25.22,ESE,115,0.0,0.0,48,0.00,,---,0.00,VWS V14.01,2013-08-28 20:59:00,
2013-08-28 15:00:00,72.9,52.0,25.22,East,85,3.6,3.6,48,0.00,,---,0.00,VWS V14.01,2013-08-28 21:00:00,
2013-08-28 15:01:00,72.9,52.0,25.22,ESE,108,0.0,3.6,48,0.00,,---,0.00,VWS V14.01,2013-08-28 21:01:00,
2013-08-28 15:04:00,73.6,52.7,25.22,WNW,297,0.0,4.0,48,0.00,,---,0.00,VWS V14.01,2013-08-28 21:04:00,
2013-08-28 15:05:00,73.6,52.7,25.22,ENE,74,3.1,4.0,48,0.00,,---,0.00,VWS V14.01,2013-08-28 21:05:00,
2013-08-28 15:10:00,74.3,51.6,25.22,ESE,116,0.0,4.0,45,0.00,,---,0.00,VWS V14.01,2013-08-28 21:10:00,
2013-08-28 15:11:00,74.3,51.6,25.22,East,82,4.0,4.0,45,0.00,,---,0.00,VWS V14.01,2013-08-28 21:11:00,
2013-08-28 15:16:00,73.8,51.1,25.22,NE,44,0.0,3.1,45,0.00,,---,0.00,VWS V14.01,2013-08-28 21:16:00,
2013-08-28 15:18:00,73.8,51.1,25.22,North,357,0.0,3.1,45,0.00,,---,0.00,VWS V14.01,2013-08-28 21:18:00,
2013-08-28 15:19:00,73.9,53.0,25.22,ENE,57,3.6,3.6,48,0.00,,---,0.00,VWS V14.01,2013-08-28 21:19:00,
2013-08-28 15:21:00,73.9,53.0,25.22,North,357,4.9,4.9,48,0.00,,---,0.00,VWS V14.01,2013-08-28 21:21:00,
2013-08-28 15:24:00,74.1,52.0,25.22,East,101,3.6,4.0,46,0.00,,---,0.00,VWS V14.01,2013-08-28 21:24:00,
2013-08-28 15:26:00,74.3,52.2,25.22,East,93,3.1,6.3,46,0.00,,---,0.00,VWS V14.01,2013-08-28 21:26:00,
2013-08-28 15:30:00,73.6,52.1,25.19,ENE,74,3.1,3.1,47,0.00,,---,0.00,VWS V14.01,2013-08-28 21:30:00,
2013-08-28 15:31:00,73.4,52.0,25.19,ENE,59,2.7,4.0,47,0.00,,---,0.00,VWS V14.01,2013-08-28 21:31:00,
2013-08-28 15:33:00,73.2,52.4,25.19,NE,46,2.7,2.7,48,0.00,,---,0.00,VWS V14.01,2013-08-28 21:33:00,
2013-08-28 15:34:00,73.2,52.4,25.19,ESE,105,0.0,2.7,48,0.00,,---,0.00,VWS V14.01,2013-08-28 21:34:00,
2013-08-28 15:35:00,73.0,52.2,25.19,East,100,2.7,3.1,48,0.00,,---,0.00,VWS V14.01,2013-08-28 21:35:00,
2013-08-28 15:37:00,73.0,52.8,25.19,SSE,149,3.1,3.1,49,0.00,,---,0.00,VWS V14.01,2013-08-28 21:37:00,
2013-08-28 15:39:00,72.7,52.4,25.19,East,87,3.1,4.0,49,0.00,,---,0.00,VWS V14.01,2013-08-28 21:39:00,
2013-08-28 15:42:00,72.3,53.7,25.19,ESE,112,3.6,4.9,52,0.00,,---,0.00,VWS V14.01,2013-08-28 21:42:00,
2013-08-28 15:45:00,72.3,53.7,25.19,ESE,114,4.0,4.9,52,0.00,,---,0.00,VWS V14.01,2013-08-28 21:45:00,
2013-08-28 15:46:00,72.3,53.7,25.19,SSE,166,2.7,4.0,52,0.00,,---,0.00,VWS V14.01,2013-08-28 21:46:00,
2013-08-28 15:49:00,72.1,53.6,25.19,ESE,113,4.0,4.0,52,0.00,,---,0.00,VWS V14.01,2013-08-28 21:49:00,
2013-08-28 15:51:00,72.1,53.6,25.19,ENE,63,3.1,3.1,52,0.00,,---,0.00,VWS V14.01,2013-08-28 21:51:00,
2013-08-28 15:52:00,72.1,53.6,25.19,ENE,75,4.0,4.0,52,0.00,,---,0.00,VWS V14.01,2013-08-28 21:52:00,
2013-08-28 15:55:00,72.0,53.9,25.19,East,100,5.4,5.4,53,0.00,,---,0.00,VWS V14.01,2013-08-28 21:55:00,
2013-08-28 15:56:00,71.8,53.8,25.19,ENE,78,4.0,5.4,53,0.00,,---,0.00,VWS V14.01,2013-08-28 21:56:00,
2013-08-28 15:58:00,71.6,53.6,25.19,SSE,151,7.6,7.6,53,0.00,,---,0.00,VWS V14.01,2013-08-28 21:58:00,
2013-08-28 16:00:00,71.2,53.2,25.19,ESE,115,3.1,7.6,53,0.00,,---,0.00,VWS V14.01,2013-08-28 22:00:00,
2013-08-28 16:01:00,71.2,53.2,25.19,East,92,3.6,3.6,53,0.00,,---,0.00,VWS V14.01,2013-08-28 22:01:00,
2013-08-28 16:03:00,70.7,53.8,25.19,East,88,4.0,5.8,55,0.00,,---,0.00,VWS V14.01,2013-08-28 22:03:00,
2013-08-28 16:05:00,70.5,54.6,25.19,ESE,109,4.0,4.0,57,0.00,,---,0.00,VWS V14.01,2013-08-28 22:05:00,
2013-08-28 16:07:00,70.5,54.6,25.19,East,87,3.6,3.6,57,0.00,,---,0.00,VWS V14.01,2013-08-28 22:07:00,
2013-08-28 16:10:00,70.5,54.6,25.19,SSE,153,3.1,4.0,57,0.00,,---,0.00,VWS V14.01,2013-08-28 22:10:00,
2013-08-28 16:11:00,70.7,54.7,25.19,East,83,4.9,4.9,57,0.00,,---,0.00,VWS V14.01,2013-08-28 22:11:00,
2013-08-28 16:12:00,70.7,54.7,25.19,East,83,3.1,4.9,57,0.00,,---,0.00,VWS V14.01,2013-08-28 22:12:00,
2013-08-28 16:13:00,70.7,54.7,25.19,ESE,104,5.8,5.8,57,0.00,,---,0.00,VWS V14.01,2013-08-28 22:13:00,
2013-08-28 16:15:00,70.7,54.7,25.19,ENE,76,3.1,4.0,57,0.00,,---,0.00,VWS V14.01,2013-08-28 22:15:00,
2013-08-28 16:16:00,70.7,54.7,25.19,NE,36,2.7,3.6,57,0.00,,---,0.00,VWS V14.01,2013-08-28 22:16:00,
2013-08-28 16:17:00,70.7,54.7,25.22,ESE,110,2.7,2.7,57,0.00,,---,0.00,VWS V14.01,2013-08-28 22:17:00,
2013-08-28 16:19:00,70.5,55.0,25.22,East,81,4.0,4.0,58,0.00,,---,0.00,VWS V14.01,2013-08-28 22:19:00,
2013-08-28 16:20:00,70.3,54.9,25.22,East,91,4.9,4.9,58,0.00,,---,0.00,VWS V14.01,2013-08-28 22:20:00,
2013-08-28 16:21:00,70.3,54.9,25.22,East,80,3.1,4.9,58,0.00,,---,0.00,VWS V14.01,2013-08-28 22:21:00,
2013-08-28 16:22:00,70.3,54.9,25.22,ESE,122,5.8,5.8,58,0.00,,---,0.00,VWS V14.01,2013-08-28 22:22:00,
2013-08-28 16:25:00,70.2,54.7,25.22,ESE,123,3.1,5.4,58,0.00,,---,0.00,VWS V14.01,2013-08-28 22:25:00,
2013-08-28 16:29:00,70.2,56.1,25.22,ENE,61,3.6,3.6,61,0.00,,---,0.00,VWS V14.01,2013-08-28 22:29:00,
2013-08-28 16:30:00,70.2,56.1,25.22,East,92,4.0,4.9,61,0.00,,---,0.00,VWS V14.01,2013-08-28 22:30:00,
2013-08-28 16:31:00,70.0,55.9,25.22,East,100,3.6,4.9,61,0.00,,---,0.00,VWS V14.01,2013-08-28 22:31:00,
2013-08-28 16:33:00,70.0,55.9,25.22,East,92,3.6,3.6,61,0.00,,---,0.00,VWS V14.01,2013-08-28 22:33:00,
2013-08-28 16:35:00,69.8,56.2,25.22,NE,48,4.9,4.9,62,0.00,,---,0.00,VWS V14.01,2013-08-28 22:35:00,
2013-08-28 16:36:00,69.8,56.2,25.22,NE,48,3.6,4.9,62,0.00,,---,0.00,VWS V14.01,2013-08-28 22:36:00,
2013-08-28 16:37:00,69.8,56.2,25.22,East,80,3.1,5.4,62,0.00,,---,0.00,VWS V14.01,2013-08-28 22:37:00,
2013-08-28 16:38:00,69.8,56.2,25.22,East,96,3.6,3.6,62,0.00,,---,0.00,VWS V14.01,2013-08-28 22:38:00,
2013-08-28 16:43:00,69.1,56.4,25.22,East,84,2.2,3.1,64,0.00,,---,0.00,VWS V14.01,2013-08-28 22:43:00,
2013-08-28 16:44:00,68.9,56.2,25.22,East,84,0.0,2.2,64,0.00,,---,0.00,VWS V14.01,2013-08-28 22:44:00,
2013-08-28 16:45:00,68.9,56.2,25.22,ESE,115,0.0,3.1,64,0.00,,---,0.00,VWS V14.01,2013-08-28 22:45:00,
2013-08-28 16:46:00,68.9,56.7,25.22,ESE,104,0.0,0.0,65,0.00,,---,0.00,VWS V14.01,2013-08-28 22:46:00,
2013-08-28 16:49:00,68.7,56.5,25.22,East,85,2.7,7.6,65,0.00,,---,0.00,VWS V14.01,2013-08-28 22:49:00,
2013-08-28 16:52:00,68.5,56.7,25.22,ESE,103,3.1,5.4,66,0.00,,---,0.00,VWS V14.01,2013-08-28 22:52:00,
2013-08-28 16:56:00,68.4,57.0,25.22,East,97,3.6,3.6,67,0.00,,---,0.00,VWS V14.01,2013-08-28 22:56:00,
2013-08-28 16:57:00,68.4,57.4,25.22,East,95,5.8,5.8,68,0.00,,---,0.00,VWS V14.01,2013-08-28 22:57:00,
2013-08-28 16:58:00,68.2,57.2,25.22,East,91,2.7,5.8,68,0.00,,---,0.00,VWS V14.01,2013-08-28 22:58:00,
2013-08-28 17:01:00,68.2,57.6,25.22,ESE,113,0.0,4.9,69,0.00,,---,0.00,VWS V14.01,2013-08-28 23:01:00,
2013-08-28 17:02:00,68.2,57.6,25.22,ESE,112,2.7,2.7,69,0.00,,---,0.00,VWS V14.01,2013-08-28 23:02:00,
2013-08-28 17:03:00,68.2,57.6,25.22,East,100,2.2,2.7,69,0.00,,---,0.00,VWS V14.01,2013-08-28 23:03:00,
2013-08-28 17:04:00,68.2,57.6,25.22,East,101,0.0,2.2,69,0.00,,---,0.00,VWS V14.01,2013-08-28 23:04:00,
2013-08-28 17:05:00,68.0,57.5,25.22,ESE,102,2.2,2.2,69,0.00,,---,0.00,VWS V14.01,2013-08-28 23:05:00,
2013-08-28 17:08:00,68.2,57.6,25.22,ESE,102,3.1,3.1,69,0.00,,---,0.00,VWS V14.01,2013-08-28 23:08:00,
2013-08-28 17:09:00,68.2,58.0,25.22,NE,56,4.9,4.9,70,0.00,,---,0.00,VWS V14.01,2013-08-28 23:09:00,
2013-08-28 17:12:00,68.0,57.9,25.22,East,90,3.1,3.1,70,0.00,,---,0.00,VWS V14.01,2013-08-28 23:12:00,
2013-08-28 17:14:00,68.0,57.9,25.22,East,83,3.1,3.1,70,0.00,,---,0.00,VWS V14.01,2013-08-28 23:14:00,
2013-08-28 17:16:00,68.0,57.9,25.22,East,83,2.7,3.6,70,0.00,,---,0.00,VWS V14.01,2013-08-28 23:16:00,
2013-08-28 17:17:00,68.0,57.9,25.22,ESE,114,2.7,3.1,70,0.00,,---,0.00,VWS V14.01,2013-08-28 23:17:00,
2013-08-28 17:20:00,68.0,57.9,25.22,NE,43,2.7,3.6,70,0.00,,---,0.00,VWS V14.01,2013-08-28 23:20:00,
2013-08-28 17:21:00,67.8,58.1,25.22,NE,43,2.7,2.7,71,0.00,,---,0.00,VWS V14.01,2013-08-28 23:21:00,
2013-08-28 17:22:00,67.8,58.1,25.22,NE,43,2.7,2.7,71,0.00,,---,0.00,VWS V14.01,2013-08-28 23:22:00,
2013-08-28 17:25:00,67.8,58.5,25.22,ENE,76,0.0,3.1,72,0.00,,---,0.00,VWS V14.01,2013-08-28 23:25:00,
2013-08-28 17:26:00,67.8,58.1,25.22,ENE,76,0.0,0.0,71,0.00,,---,0.00,VWS V14.01,2013-08-28 23:26:00,
2013-08-28 17:28:00,67.6,58.3,25.22,East,96,4.0,4.0,72,0.00,,---,0.00,VWS V14.01,2013-08-28 23:28:00,
2013-08-28 17:29:00,67.6,58.3,25.22,East,99,3.6,4.0,72,0.00,,---,0.00,VWS V14.01,2013-08-28 23:29:00,
2013-08-28 17:30:00,67.6,58.7,25.22,East,86,5.4,5.4,73,0.00,,---,0.00,VWS V14.01,2013-08-28 23:30:00,
2013-08-28 17:32:00,67.6,58.7,25.22,East,86,4.9,4.9,73,0.00,,---,0.00,VWS V14.01,2013-08-28 23:32:00,
2013-08-28 17:35:00,67.5,58.9,25.22,East,96,3.1,4.0,74,0.00,,---,0.00,VWS V14.01,2013-08-28 23:35:00,
2013-08-28 17:36:00,67.5,58.9,25.22,East,96,3.1,3.1,74,0.00,,---,0.00,VWS V14.01,2013-08-28 23:36:00,
2013-08-28 17:37:00,67.5,58.9,25.22,East,85,3.1,3.1,74,0.00,,---,0.00,VWS V14.01,2013-08-28 23:37:00,
2013-08-28 17:38:00,67.5,59.3,25.22,East,99,3.1,4.0,75,0.00,,---,0.00,VWS V14.01,2013-08-28 23:38:00,
2013-08-28 17:43:00,67.3,59.1,25.25,East,97,4.0,5.4,75,0.00,,---,0.00,VWS V14.01,2013-08-28 23:43:00,
2013-08-28 17:44:00,67.3,59.1,25.25,NE,54,3.6,4.0,75,0.00,,---,0.00,VWS V14.01,2013-08-28 23:44:00,
2013-08-28 17:46:00,67.3,59.1,25.25,East,87,3.6,3.6,75,0.00,,---,0.00,VWS V14.01,2013-08-28 23:46:00,
2013-08-28 17:48:00,66.9,59.5,25.25,East,100,4.0,4.0,77,0.00,,---,0.00,VWS V14.01,2013-08-28 23:48:00,
2013-08-28 17:51:00,66.7,59.7,25.25,NE,48,5.4,6.3,78,0.00,,---,0.00,VWS V14.01,2013-08-28 23:51:00,
2013-08-28 17:52:00,66.7,59.7,25.25,East,85,3.1,5.4,78,0.00,,---,0.00,VWS V14.01,2013-08-28 23:52:00,
2013-08-28 17:55:00,66.7,59.7,25.25,SE,129,3.6,3.6,78,0.00,,---,0.00,VWS V14.01,2013-08-28 23:55:00,
2013-08-28 17:56:00,66.6,59.8,25.25,ESE,112,2.7,3.6,79,0.00,,---,0.00,VWS V14.01,2013-08-28 23:56:00,
2013-08-28 17:58:00,66.6,59.8,25.25,East,94,3.6,3.6,79,0.00,,---,0.00,VWS V14.01,2013-08-28 23:58:00,
2013-08-28 17:59:00,66.6,59.8,25.25,SSE,162,4.0,4.0,79,0.00,,---,0.00,VWS V14.01,2013-08-28 23:59:00,
2013-08-28 18:00:00,66.6,59.8,25.25,East,86,3.1,4.0,79,0.00,,---,0.00,VWS V14.01,2013-08-29 00:00:00,
2013-08-28 18:01:00,66.4,60.0,25.25,East,86,2.7,3.1,80,0.00,,---,0.00,VWS V14.01,2013-08-29 00:01:00,
2013-08-28 18:04:00,66.4,60.0,25.25,ENE,71,2.7,3.6,80,0.00,,---,0.00,VWS V14.01,2013-08-29 00:04:00,
2013-08-28 18:06:00,66.4,60.0,25.25,ENE,70,4.0,4.0,80,0.00,,---,0.00,VWS V14.01,2013-08-29 00:06:00,
2013-08-28 18:09:00,66.2,60.2,25.25,ENE,57,2.7,2.7,81,0.00,,---,0.00,VWS V14.01,2013-08-29 00:09:00,
2013-08-28 18:10:00,66.2,60.5,25.25,NE,34,0.0,2.7,82,0.00,,---,0.00,VWS V14.01,2013-08-29 00:10:00,
2013-08-28 18:11:00,66.2,60.5,25.25,NE,34,2.7,2.7,82,0.00,,---,0.00,VWS V14.01,2013-08-29 00:11:00,
2013-08-28 18:12:00,66.2,60.5,25.25,NE,34,0.0,2.7,82,0.00,,---,0.00,VWS V14.01,2013-08-29 00:12:00,
2013-08-28 18:17:00,66.0,60.7,25.25,NNW,346,2.7,2.7,83,0.00,,---,0.00,VWS V14.01,2013-08-29 00:17:00,
2013-08-28 18:19:00,66.0,60.7,25.25,North,7,3.6,3.6,83,0.00,,---,0.00,VWS V14.01,2013-08-29 00:19:00,
2013-08-28 18:21:00,66.0,60.7,25.25,ESE,118,3.1,3.6,83,0.00,,---,0.00,VWS V14.01,2013-08-29 00:21:00,
2013-08-28 18:22:00,66.0,60.7,25.25,SE,130,0.0,3.1,83,0.00,,---,0.00,VWS V14.01,2013-08-29 00:22:00,
2013-08-28 18:24:00,65.8,60.9,25.25,NNE,24,0.0,2.7,84,0.00,,---,0.00,VWS V14.01,2013-08-29 00:24:00,
2013-08-28 18:27:00,65.8,61.5,25.25,NE,39,2.7,3.6,86,0.00,,---,0.00,VWS V14.01,2013-08-29 00:27:00,
2013-08-28 18:28:00,65.8,61.5,25.25,ENE,61,2.2,2.7,86,0.00,,---,0.00,VWS V14.01,2013-08-29 00:28:00,
2013-08-28 18:29:00,65.8,61.5,25.25,ENE,57,2.2,2.7,86,0.00,,---,0.00,VWS V14.01,2013-08-29 00:29:00,
2013-08-28 18:32:00,65.7,61.4,25.25,NE,53,0.0,3.1,86,0.00,,---,0.00,VWS V14.01,2013-08-29 00:32:00,
2013-08-28 18:33:00,65.7,61.4,25.25,NE,46,2.7,3.1,86,0.00,,---,0.00,VWS V14.01,2013-08-29 00:33:00,
2013-08-28 18:34:00,65.7,61.4,25.25,NE,55,2.2,3.1,86,0.00,,---,0.00,VWS V14.01,2013-08-29 00:34:00,
2013-08-28 18:36:00,65.7,61.7,25.25,NE,52,3.6,3.6,87,0.00,,---,0.00,VWS V14.01,2013-08-29 00:36:00,
2013-08-28 18:38:00,65.5,61.8,25.25,East,91,3.1,3.1,88,0.00,,---,0.00,VWS V14.01,2013-08-29 00:38:00,
2013-08-28 18:41:00,65.5,61.8,25.25,ESE,112,3.6,3.6,88,0.00,,---,0.00,VWS V14.01,2013-08-29 00:41:00,
2013-08-28 18:44:00,65.5,61.8,25.25,ESE,115,3.6,3.6,88,0.00,,---,0.00,VWS V14.01,2013-08-29 00:44:00,
2013-08-28 18:45:00,65.5,62.2,25.25,ENE,73,2.7,3.6,89,0.00,,---,0.00,VWS V14.01,2013-08-29 00:45:00,
2013-08-28 18:47:00,65.5,62.2,25.25,East,88,2.7,3.1,89,0.00,,---,0.00,VWS V14.01,2013-08-29 00:47:00,
2013-08-28 18:48:00,65.5,62.2,25.25,East,89,0.0,2.7,89,0.00,,---,0.00,VWS V14.01,2013-08-29 00:48:00,
2013-08-28 18:49:00,65.5,62.2,25.25,East,89,0.0,0.0,89,0.00,,---,0.00,VWS V14.01,2013-08-29 00:49:00,
2013-08-28 18:51:00,65.5,62.2,25.25,ENE,66,2.2,2.7,89,0.00,,---,0.00,VWS V14.01,2013-08-29 00:51:00,
2013-08-28 18:53:00,65.3,62.0,25.25,East,90,0.0,0.0,89,0.00,,---,0.00,VWS V14.01,2013-08-29 00:53:00,
2013-08-28 18:54:00,65.3,62.0,25.25,East,90,0.0,0.0,89,0.00,,---,0.00,VWS V14.01,2013-08-29 00:54:00,
2013-08-28 18:56:00,65.3,62.0,25.25,East,90,2.2,2.2,89,0.00,,---,0.00,VWS V14.01,2013-08-29 00:56:00,
2013-08-28 18:57:00,65.3,62.0,25.25,North,8,2.7,3.1,89,0.00,,---,0.00,VWS V14.01,2013-08-29 00:57:00,
2013-08-28 19:00:00,65.3,62.0,25.25,SE,128,3.1,3.6,89,0.00,,---,0.00,VWS V14.01,2013-08-29 01:00:00,
2013-08-28 19:01:00,65.3,62.0,25.25,NE,53,2.7,3.1,89,0.00,,---,0.00,VWS V14.01,2013-08-29 01:01:00,
2013-08-28 19:06:00,65.1,61.8,25.25,ENE,78,7.6,7.6,89,0.00,,---,0.00,VWS V14.01,2013-08-29 01:06:00,
2013-08-28 19:09:00,65.3,61.7,25.25,East,88,5.8,5.8,88,0.00,,---,0.00,VWS V14.01,2013-08-29 01:09:00,
2013-08-28 19:11:00,65.3,61.7,25.25,NE,42,5.8,5.8,88,0.00,,---,0.00,VWS V14.01,2013-08-29 01:11:00,
2013-08-28 19:12:00,65.3,61.7,25.25,NE,38,5.4,7.6,88,0.00,,---,0.00,VWS V14.01,2013-08-29 01:12:00,
2013-08-28 19:13:00,65.3,61.7,25.25,ESE,111,7.2,7.2,88,0.00,,---,0.00,VWS V14.01,2013-08-29 01:13:00,
2013-08-28 19:16:00,65.5,61.2,25.25,East,81,6.3,8.7,86,0.00,,---,0.00,VWS V14.01,2013-08-29 01:16:00,
2013-08-28 19:17:00,65.5,61.2,25.25,East,91,8.7,8.7,86,0.00,,---,0.00,VWS V14.01,2013-08-29 01:17:00,
2013-08-28 19:19:00,65.5,60.5,25.25,East,81,3.1,8.3,84,0.00,,---,0.00,VWS V14.01,2013-08-29 01:19:00,
2013-08-28 19:20:00,65.5,60.2,25.25,East,80,2.7,4.9,83,0.00,,---,0.00,VWS V14.01,2013-08-29 01:20:00,
2013-08-28 19:22:00,65.5,60.2,25.25,SE,128,4.0,4.0,83,0.00,,---,0.00,VWS V14.01,2013-08-29 01:22:00,
2013-08-28 19:25:00,65.7,60.0,25.25,ENE,57,2.2,4.0,82,0.00,,---,0.00,VWS V14.01,2013-08-29 01:25:00,
2013-08-28 19:28:00,65.7,60.0,25.25,NNE,32,4.0,4.0,82,0.00,,---,0.00,VWS V14.01,2013-08-29 01:28:00,
2013-08-28 19:30:00,65.7,60.0,25.25,ENE,78,0.0,0.0,82,0.00,,---,0.00,VWS V14.01,2013-08-29 01:30:00,
2013-08-28 19:31:00,65.7,59.7,25.25,ENE,78,0.0,0.0,81,0.00,,---,0.00,VWS V14.01,2013-08-29 01:31:00,
2013-08-28 19:32:00,65.7,59.7,25.25,ENE,60,3.1,3.1,81,0.00,,---,0.00,VWS V14.01,2013-08-29 01:32:00,
2013-08-28 19:34:00,65.5,59.5,25.28,SE,143,5.8,6.3,81,0.00,,---,0.00,VWS V14.01,2013-08-29 01:34:00,
2013-08-28 19:38:00,65.5,59.2,25.28,NE,53,3.1,3.6,80,0.00,,---,0.00,VWS V14.01,2013-08-29 01:38:00,
2013-08-28 19:39:00,65.5,59.2,25.28,East,96,4.0,4.0,80,0.00,,---,0.00,VWS V14.01,2013-08-29 01:39:00,
2013-08-28 19:40:00,65.7,59.3,25.28,SE,127,2.7,4.0,80,0.00,,---,0.00,VWS V14.01,2013-08-29 01:40:00,
2013-08-28 19:44:00,65.7,59.0,25.28,SE,145,5.4,8.3,79,0.00,,---,0.00,VWS V14.01,2013-08-29 01:44:00,
2013-08-28 19:45:00,65.7,59.0,25.28,SE,133,0.0,5.4,79,0.00,,---,0.00,VWS V14.01,2013-08-29 01:45:00,
2013-08-28 19:49:00,65.7,58.6,25.25,ESE,119,4.0,4.0,78,0.00,,---,0.00,VWS V14.01,2013-08-29 01:49:00,
2013-08-28 19:50:00,65.7,58.3,25.25,ESE,112,4.9,4.9,77,0.00,,---,0.00,VWS V14.01,2013-08-29 01:50:00,
2013-08-28 19:53:00,65.8,58.1,25.25,ESE,104,5.8,6.3,76,0.00,,---,0.00,VWS V14.01,2013-08-29 01:53:00,
2013-08-28 19:54:00,65.8,57.7,25.25,ESE,104,5.8,5.8,75,0.00,,---,0.00,VWS V14.01,2013-08-29 01:54:00,
2013-08-28 19:56:00,65.8,57.7,25.25,ESE,106,5.4,5.4,75,0.00,,---,0.00,VWS V14.01,2013-08-29 01:56:00,
2013-08-28 19:57:00,66.0,57.9,25.25,SSE,149,8.3,8.3,75,0.00,,---,0.00,VWS V14.01,2013-08-29 01:57:00,
2013-08-28 20:01:00,66.2,57.7,25.25,ENE,64,2.7,2.7,74,0.00,,---,0.00,VWS V14.01,2013-08-29 02:01:00,
2013-08-28 20:03:00,66.2,57.7,25.28,ESE,112,7.6,7.6,74,0.00,,---,0.00,VWS V14.01,2013-08-29 02:03:00,
2013-08-28 20:04:00,66.2,57.3,25.28,ESE,111,3.6,7.6,73,0.00,,---,0.00,VWS V14.01,2013-08-29 02:04:00,
2013-08-28 20:05:00,66.2,57.3,25.28,ESE,111,2.2,3.6,73,0.00,,---,0.00,VWS V14.01,2013-08-29 02:05:00,
2013-08-28 20:06:00,66.2,57.3,25.28,ESE,111,0.0,2.7,73,0.00,,---,0.00,VWS V14.01,2013-08-29 02:06:00,
2013-08-28 20:08:00,66.2,57.3,25.28,ESE,111,2.7,2.7,73,0.00,,---,0.00,VWS V14.01,2013-08-29 02:08:00,
2013-08-28 20:10:00,66.2,57.3,25.28,SE,126,6.3,6.3,73,0.00,,---,0.00,VWS V14.01,2013-08-29 02:10:00,
2013-08-28 20:12:00,66.0,57.5,25.28,ESE,103,4.0,5.8,74,0.00,,---,0.00,VWS V14.01,2013-08-29 02:12:00,
2013-08-28 20:14:00,66.0,57.5,25.28,ESE,104,2.2,2.7,74,0.00,,---,0.00,VWS V14.01,2013-08-29 02:14:00,
2013-08-28 20:18:00,66.0,57.9,25.28,SE,128,3.6,4.9,75,0.00,,---,0.00,VWS V14.01,2013-08-29 02:18:00,
2013-08-28 20:19:00,66.0,57.9,25.28,SSW,209,2.7,6.3,75,0.00,,---,0.00,VWS V14.01,2013-08-29 02:19:00,
2013-08-28 20:20:00,66.0,57.9,25.28,SSW,210,2.2,2.7,75,0.00,,---,0.00,VWS V14.01,2013-08-29 02:20:00,
2013-08-28 20:21:00,66.0,57.9,25.28,East,89,3.6,3.6,75,0.00,,---,0.00,VWS V14.01,2013-08-29 02:21:00,
2013-08-28 20:26:00,65.8,58.1,25.28,East,91,4.9,4.9,76,0.00,,---,0.00,VWS V14.01,2013-08-29 02:26:00,
2013-08-28 20:27:00,65.8,58.1,25.28,East,89,2.7,4.9,76,0.00,,---,0.00,VWS V14.01,2013-08-29 02:27:00,
2013-08-28 20:29:00,65.8,58.4,25.28,East,89,3.1,4.9,77,0.00,,---,0.00,VWS V14.01,2013-08-29 02:29:00,
2013-08-28 20:30:00,65.8,58.4,25.28,East,100,2.7,3.6,77,0.00,,---,0.00,VWS V14.01,2013-08-29 02:30:00,
2013-08-28 20:33:00,65.8,58.1,25.28,East,84,2.7,6.3,76,0.00,,---,0.00,VWS V14.01,2013-08-29 02:33:00,
2013-08-28 20:34:00,65.8,58.1,25.28,East,84,2.7,2.7,76,0.00,,---,0.00,VWS V14.01,2013-08-29 02:34:00,
2013-08-28 20:36:00,65.8,58.1,25.28,SE,129,4.0,6.3,76,0.00,,---,0.00,VWS V14.01,2013-08-29 02:36:00,
2013-08-28 20:37:00,65.8,58.1,25.28,SE,131,3.1,4.0,76,0.00,,---,0.00,VWS V14.01,2013-08-29 02:37:00,
2013-08-28 20:38:00,65.8,58.1,25.28,SE,131,3.1,3.1,76,0.00,,---,0.00,VWS V14.01,2013-08-29 02:38:00,
2013-08-28 20:39:00,65.8,57.7,25.28,SE,126,8.3,11.0,75,0.00,,---,0.00,VWS V14.01,2013-08-29 02:39:00,
2013-08-28 20:40:00,65.8,57.3,25.28,ESE,105,5.4,8.3,74,0.00,,---,0.00,VWS V14.01,2013-08-29 02:40:00,
2013-08-28 20:41:00,65.8,57.3,25.28,ESE,105,5.4,5.4,74,0.00,,---,0.00,VWS V14.01,2013-08-29 02:41:00,
2013-08-28 20:45:00,66.0,57.1,25.28,ENE,74,3.6,3.6,73,0.00,,---,0.00,VWS V14.01,2013-08-29 02:45:00,
2013-08-28 20:47:00,66.0,56.7,25.28,SSE,164,3.6,3.6,72,0.00,,---,0.00,VWS V14.01,2013-08-29 02:47:00,
2013-08-28 20:50:00,66.0,57.1,25.28,NNE,32,3.1,3.1,73,0.00,,---,0.00,VWS V14.01,2013-08-29 02:50:00,
2013-08-28 20:51:00,66.0,57.1,25.28,NNE,15,4.0,4.0,73,0.00,,---,0.00,VWS V14.01,2013-08-29 02:51:00,
2013-08-28 20:53:00,66.0,57.1,25.28,East,87,3.1,3.6,73,0.00,,---,0.00,VWS V14.01,2013-08-29 02:53:00,
2013-08-28 20:55:00,66.0,57.1,25.28,East,87,0.0,2.7,73,0.00,,---,0.00,VWS V14.01,2013-08-29 02:55:00,
2013-08-28 20:56:00,66.0,57.1,25.28,East,86,0.0,2.2,73,0.00,,---,0.00,VWS V14.01,2013-08-29 02:56:00,
2013-08-28 20:57:00,66.0,57.1,25.28,East,86,0.0,0.0,73,0.00,,---,0.00,VWS V14.01,2013-08-29 02:57:00,
2013-08-28 21:01:00,66.0,58.6,25.28,ENE,64,3.1,3.1,77,0.00,,---,0.00,VWS V14.01,2013-08-29 03:01:00,
2013-08-28 21:03:00,65.8,58.4,25.28,East,93,4.0,4.0,77,0.00,,---,0.00,VWS V14.01,2013-08-29 03:03:00,
2013-08-28 21:04:00,65.8,58.4,25.28,East,88,2.7,4.0,77,0.00,,---,0.00,VWS V14.01,2013-08-29 03:04:00,
2013-08-28 21:07:00,65.7,58.6,25.28,East,89,5.8,5.8,78,0.00,,---,0.00,VWS V14.01,2013-08-29 03:07:00,
2013-08-28 21:08:00,65.7,58.6,25.28,SE,131,3.1,6.3,78,0.00,,---,0.00,VWS V14.01,2013-08-29 03:08:00,
2013-08-28 21:11:00,65.5,58.8,25.28,ENE,71,4.9,4.9,79,0.00,,---,0.00,VWS V14.01,2013-08-29 03:11:00,
2013-08-28 21:12:00,65.5,59.2,25.28,ENE,73,3.1,4.9,80,0.00,,---,0.00,VWS V14.01,2013-08-29 03:12:00,
2013-08-28 21:14:00,65.5,59.2,25.28,SE,126,3.6,4.0,80,0.00,,---,0.00,VWS V14.01,2013-08-29 03:14:00,
2013-08-28 21:16:00,65.3,59.0,25.28,SE,145,5.8,5.8,80,0.00,,---,0.00,VWS V14.01,2013-08-29 03:16:00,
2013-08-28 21:19:00,65.1,59.2,25.28,NE,54,2.7,3.6,81,0.00,,---,0.00,VWS V14.01,2013-08-29 03:19:00,
2013-08-28 21:21:00,65.1,59.5,25.28,NE,35,5.4,5.4,82,0.00,,---,0.00,VWS V14.01,2013-08-29 03:21:00,
2013-08-28 21:23:00,64.9,59.7,25.28,ESE,105,5.8,5.8,83,0.00,,---,0.00,VWS V14.01,2013-08-29 03:23:00,
2013-08-28 21:25:00,64.9,60.0,25.28,ENE,75,3.6,5.4,84,0.00,,---,0.00,VWS V14.01,2013-08-29 03:25:00,
2013-08-28 21:28:00,64.8,60.2,25.28,ENE,69,3.1,5.8,85,0.00,,---,0.00,VWS V14.01,2013-08-29 03:28:00,
2013-08-28 21:32:00,64.8,60.5,25.28,East,95,8.1,8.1,86,0.00,,---,0.00,VWS V14.01,2013-08-29 03:32:00,
2013-08-28 21:35:00,64.8,60.8,25.28,East,81,3.6,5.8,87,0.00,,---,0.00,VWS V14.01,2013-08-29 03:35:00,
2013-08-28 21:37:00,64.8,60.8,25.28,SSE,158,5.8,6.3,87,0.00,,---,0.00,VWS V14.01,2013-08-29 03:37:00,
2013-08-28 21:38:00,64.8,60.8,25.28,SE,137,4.0,5.8,87,0.00,,---,0.00,VWS V14.01,2013-08-29 03:38:00,
2013-08-28 21:40:00,64.8,60.8,25.28,ENE,58,4.9,4.9,87,0.00,,---,0.00,VWS V14.01,2013-08-29 03:40:00,
2013-08-28 21:42:00,64.6,60.3,25.28,NE,48,6.3,7.6,86,0.00,,---,0.00,VWS V14.01,2013-08-29 03:42:00,
2013-08-28 21:43:00,64.6,60.3,25.28,ENE,63,3.6,6.3,86,0.00,,---,0.00,VWS V14.01,2013-08-29 03:43:00,
2013-08-28 21:47:00,64.8,60.2,25.28,SSE,161,6.3,6.3,85,0.00,,---,0.00,VWS V14.01,2013-08-29 03:47:00,
2013-08-28 21:48:00,64.8,60.2,25.28,East,82,5.4,6.3,85,0.00,,---,0.00,VWS V14.01,2013-08-29 03:48:00,
2013-08-28 21:49:00,64.8,60.2,25.28,East,93,3.6,5.4,85,0.00,,---,0.00,VWS V14.01,2013-08-29 03:49:00,
2013-08-28 21:50:00,64.8,60.2,25.28,East,96,3.6,3.6,85,0.00,,---,0.00,VWS V14.01,2013-08-29 03:50:00,
2013-08-28 21:51:00,64.8,59.8,25.28,NE,55,3.6,3.6,84,0.00,,---,0.00,VWS V14.01,2013-08-29 03:51:00,
2013-08-28 21:52:00,64.8,59.8,25.28,SSE,156,2.7,3.6,84,0.00,,---,0.00,VWS V14.01,2013-08-29 03:52:00,
2013-08-28 21:53:00,64.8,59.8,25.28,ESE,103,10.5,10.5,84,0.00,,---,0.00,VWS V14.01,2013-08-29 03:53:00,
2013-08-28 21:56:00,64.8,59.1,25.28,ENE,71,7.6,7.6,82,0.00,,---,0.00,VWS V14.01,2013-08-29 03:56:00,
2013-08-28 21:58:00,64.8,59.1,25.28,East,97,3.6,4.9,82,0.00,,---,0.00,VWS V14.01,2013-08-29 03:58:00,
2013-08-28 22:01:00,64.9,59.3,25.28,ENE,75,3.1,5.8,82,0.00,,---,0.00,VWS V14.01,2013-08-29 04:01:00,
2013-08-28 22:02:00,64.9,59.3,25.28,East,88,6.3,6.3,82,0.00,,---,0.00,VWS V14.01,2013-08-29 04:02:00,
2013-08-28 22:03:00,64.9,59.3,25.28,East,81,4.9,6.3,82,0.00,,---,0.00,VWS V14.01,2013-08-29 04:03:00,
2013-08-28 22:04:00,64.9,59.3,25.28,East,85,3.1,4.9,82,0.00,,---,0.00,VWS V14.01,2013-08-29 04:04:00,
2013-08-28 22:06:00,64.9,59.0,25.28,ENE,78,3.6,3.6,81,0.00,,---,0.00,VWS V14.01,2013-08-29 04:06:00,
2013-08-28 22:07:00,64.9,59.0,25.28,ENE,59,4.0,4.0,81,0.00,,---,0.00,VWS V14.01,2013-08-29 04:07:00,
2013-08-28 22:09:00,65.1,59.2,25.28,ESE,110,6.3,6.3,81,0.00,,---,0.00,VWS V14.01,2013-08-29 04:09:00,
2013-08-28 22:11:00,65.1,59.2,25.28,ENE,69,3.1,3.1,81,0.00,,---,0.00,VWS V14.01,2013-08-29 04:11:00,
2013-08-28 22:16:00,65.1,58.8,25.28,ESE,113,5.4,5.4,80,0.00,,---,0.00,VWS V14.01,2013-08-29 04:16:00,
2013-08-28 22:17:00,65.1,58.8,25.28,SE,129,5.4,5.4,80,0.00,,---,0.00,VWS V14.01,2013-08-29 04:17:00,
2013-08-28 22:18:00,65.1,58.8,25.28,SE,133,3.1,5.4,80,0.00,,---,0.00,VWS V14.01,2013-08-29 04:18:00,
2013-08-28 22:22:00,65.1,58.8,25.28,East,99,3.6,3.6,80,0.00,,---,0.00,VWS V14.01,2013-08-29 04:22:00,
2013-08-28 22:23:00,65.1,58.8,25.28,ENE,60,3.6,3.6,80,0.00,,---,0.00,VWS V14.01,2013-08-29 04:23:00,
2013-08-28 22:24:00,65.1,58.5,25.28,ENE,70,2.7,3.6,79,0.00,,---,0.00,VWS V14.01,2013-08-29 04:24:00,
2013-08-28 22:25:00,65.1,58.5,25.28,East,88,3.1,3.1,79,0.00,,---,0.00,VWS V14.01,2013-08-29 04:25:00,
2013-08-28 22:26:00,65.1,58.5,25.28,NE,55,3.1,4.0,79,0.00,,---,0.00,VWS V14.01,2013-08-29 04:26:00,
2013-08-28 22:29:00,65.1,58.8,25.28,ENE,75,3.6,8.7,80,0.00,,---,0.00,VWS V14.01,2013-08-29 04:29:00,
2013-08-28 22:33:00,65.1,58.5,25.28,ESE,108,4.0,6.3,79,0.00,,---,0.00,VWS V14.01,2013-08-29 04:33:00,
2013-08-28 22:34:00,65.1,58.5,25.28,East,79,3.1,4.0,79,0.00,,---,0.00,VWS V14.01,2013-08-29 04:34:00,
2013-08-28 22:36:00,65.1,58.5,25.28,NE,49,4.0,8.1,79,0.00,,---,0.00,VWS V14.01,2013-08-29 04:36:00,
2013-08-28 22:37:00,65.1,58.5,25.28,ENE,71,4.0,4.0,79,0.00,,---,0.00,VWS V14.01,2013-08-29 04:37:00,
2013-08-28 22:39:00,65.1,58.5,25.28,ENE,75,3.6,6.3,79,0.00,,---,0.00,VWS V14.01,2013-08-29 04:39:00,
2013-08-28 22:40:00,65.1,58.5,25.28,SE,130,4.0,5.8,79,0.00,,---,0.00,VWS V14.01,2013-08-29 04:40:00,
2013-08-28 22:44:00,65.1,58.5,25.28,ENE,61,3.6,5.4,79,0.00,,---,0.00,VWS V14.01,2013-08-29 04:44:00,
2013-08-28 22:46:00,64.9,58.6,25.28,SE,141,3.6,6.3,80,0.00,,---,0.00,VWS V14.01,2013-08-29 04:46:00,
2013-08-28 22:47:00,64.9,58.6,25.28,East,84,5.4,5.4,80,0.00,,---,0.00,VWS V14.01,2013-08-29 04:47:00,
2013-08-28 22:49:00,64.9,58.6,25.28,NE,38,3.6,4.0,80,0.00,,---,0.00,VWS V14.01,2013-08-29 04:49:00,
2013-08-28 22:51:00,64.8,58.8,25.28,NE,35,5.8,5.8,81,0.00,,---,0.00,VWS V14.01,2013-08-29 04:51:00,
2013-08-28 22:52:00,64.8,58.8,25.28,ENE,59,4.9,5.8,81,0.00,,---,0.00,VWS V14.01,2013-08-29 04:52:00,
2013-08-28 22:54:00,64.8,58.8,25.28,ENE,66,4.0,4.0,81,0.00,,---,0.00,VWS V14.01,2013-08-29 04:54:00,
2013-08-28 22:57:00,64.6,58.6,25.28,NE,52,2.7,5.8,81,0.00,,---,0.00,VWS V14.01,2013-08-29 04:57:00,
2013-08-28 22:59:00,64.6,58.6,25.28,East,83,3.1,5.4,81,0.00,,---,0.00,VWS V14.01,2013-08-29 04:59:00,
2013-08-28 23:02:00,64.4,58.8,25.28,NNE,27,3.6,4.0,82,0.00,,---,0.00,VWS V14.01,2013-08-29 05:02:00,
2013-08-28 23:03:00,64.4,58.8,25.28,ENE,61,5.4,5.4,82,0.00,,---,0.00,VWS V14.01,2013-08-29 05:03:00,
2013-08-28 23:06:00,64.2,58.6,25.28,East,85,2.2,3.1,82,0.00,,---,0.00,VWS V14.01,2013-08-29 05:06:00,
2013-08-28 23:07:00,64.2,58.6,25.28,East,85,0.0,2.7,82,0.00,,---,0.00,VWS V14.01,2013-08-29 05:07:00,
2013-08-28 23:09:00,63.9,58.3,25.28,East,85,0.0,0.0,82,0.00,,---,0.00,VWS V14.01,2013-08-29 05:09:00,
2013-08-28 23:12:00,63.9,58.6,25.28,East,82,4.0,4.0,83,0.00,,---,0.00,VWS V14.01,2013-08-29 05:12:00,
2013-08-28 23:14:00,63.7,58.8,25.28,East,95,2.2,3.1,84,0.00,,---,0.00,VWS V14.01,2013-08-29 05:14:00,
2013-08-28 23:16:00,63.7,58.8,25.28,NE,53,3.1,3.1,84,0.00,,---,0.00,VWS V14.01,2013-08-29 05:16:00,
2013-08-28 23:17:00,63.5,58.9,25.28,East,83,4.9,4.9,85,0.00,,---,0.00,VWS V14.01,2013-08-29 05:17:00,
2013-08-28 23:19:00,63.5,58.9,25.28,SE,129,6.3,8.7,85,0.00,,---,0.00,VWS V14.01,2013-08-29 05:19:00,
2013-08-28 23:22:00,63.7,60.1,25.28,NE,52,6.3,6.3,88,0.00,,---,0.00,VWS V14.01,2013-08-29 05:22:00,
2013-08-28 23:24:00,63.7,60.1,25.28,East,99,8.7,8.7,88,0.00,,---,0.00,VWS V14.01,2013-08-29 05:24:00,
2013-08-28 23:27:00,63.7,60.1,25.28,ENE,70,3.6,6.3,88,0.00,,---,0.00,VWS V14.01,2013-08-29 05:27:00,
2013-08-28 23:28:00,63.7,60.1,25.28,ENE,75,6.3,7.2,88,0.00,,---,0.00,VWS V14.01,2013-08-29 05:28:00,
2013-08-28 23:30:00,63.9,59.9,25.28,ESE,118,2.7,5.8,87,0.00,,---,0.00,VWS V14.01,2013-08-29 05:30:00,
2013-08-28 23:32:00,63.9,59.9,25.28,ESE,109,3.1,3.1,87,0.00,,---,0.00,VWS V14.01,2013-08-29 05:32:00,
2013-08-28 23:34:00,64.0,59.8,25.28,ESE,105,0.0,2.7,86,0.00,,---,0.00,VWS V14.01,2013-08-29 05:34:00,
2013-08-28 23:35:00,64.0,59.8,25.28,ESE,105,2.7,2.7,86,0.00,,---,0.00,VWS V14.01,2013-08-29 05:35:00,
2013-08-28 23:36:00,64.0,59.8,25.28,ESE,120,2.2,2.7,86,0.00,,---,0.00,VWS V14.01,2013-08-29 05:36:00,
2013-08-28 23:37:00,64.2,60.0,25.28,East,85,5.4,5.4,86,0.00,,---,0.00,VWS V14.01,2013-08-29 05:37:00,
2013-08-28 23:38:00,64.0,59.8,25.28,SE,131,4.0,5.8,86,0.00,,---,0.00,VWS V14.01,2013-08-29 05:38:00,
2013-08-28 23:42:00,64.2,59.0,25.28,SE,141,0.0,3.1,83,0.00,,---,0.00,VWS V14.01,2013-08-29 05:42:00,
2013-08-28 23:43:00,64.2,59.0,25.28,SE,141,0.0,0.0,83,0.00,,---,0.00,VWS V14.01,2013-08-29 05:43:00,
2013-08-28 23:44:00,64.2,59.0,25.28,SE,141,0.0,0.0,83,0.00,,---,0.00,VWS V14.01,2013-08-29 05:44:00,
2013-08-28 23:45:00,64.4,58.8,25.28,ESE,108,2.7,3.1,82,0.00,,---,0.00,VWS V14.01,2013-08-29 05:45:00,
2013-08-28 23:48:00,64.4,58.8,25.28,North,1,3.1,3.1,82,0.00,,---,0.00,VWS V14.01,2013-08-29 05:48:00,
2013-08-28 23:49:00,64.4,58.5,25.28,ENE,77,2.7,3.1,81,0.00,,---,0.00,VWS V14.01,2013-08-29 05:49:00,
2013-08-28 23:51:00,64.4,58.5,25.28,East,84,2.7,6.3,81,0.00,,---,0.00,VWS V14.01,2013-08-29 05:51:00,
2013-08-28 23:52:00,64.4,58.5,25.28,ESE,109,2.2,2.7,81,0.00,,---,0.00,VWS V14.01,2013-08-29 05:52:00,
2013-08-28 23:53:00,64.4,58.5,25.28,ESE,106,2.7,2.7,81,0.00,,---,0.00,VWS V14.01,2013-08-29 05:53:00,
2013-08-28 23:55:00,64.4,58.1,25.28,ESE,106,2.7,2.7,80,0.00,,---,0.00,VWS V14.01,2013-08-29 05:55:00,
2013-08-28 23:58:00,64.6,58.3,25.28,East,88,2.2,2.7,80,0.00,,---,0.00,VWS V14.01,2013-08-29 05:58:00,
2013-08-28 23:59:00,64.6,58.3,25.28,East,97,4.9,4.9,80,0.00,,---,0.00,VWS V14.01,2013-08-29 05:59:00,